KC5DAQ-22 Weather Reports


Display with metric or nautical units.
time (UTC)temp
F
wind
direction
speed
MPH
gust
MPH
rain 1hr
in
rain 24hr
in
rain mn
in
humidity
%
barometer
mb
20210120153913 59 38 3.0 5.0 0.00 0.00 0.00 91 1026.1
20210120153813 59 48 3.0 5.0 0.00 0.00 0.00 91 1026.1
20210120153713 59 49 4.0 5.0 0.00 0.00 0.00 91 1026.1
20210120153618 59 28 3.0 5.0 0.00 0.00 0.00 91 1026.1
20210120153521 58 23 3.0 5.0 0.00 0.00 0.00 91 1026.1
20210120153415 58 17 4.0 5.0 0.00 0.00 0.00 91 1026.1
20210120153316 58 24 4.0 6.0 0.00 0.00 0.00 92 1026.0
20210120153216 58 24 3.0 7.0 0.00 0.00 0.00 92 1026.0
20210120153112 58 58 3.0 7.0 0.00 0.00 0.00 92 1026.0
20210120153023 58 35 4.0 7.0 0.00 0.00 0.00 92 1026.0
20210120152922 58 52 4.0 9.0 0.00 0.00 0.00 92 1026.1
20210120152814 58 49 4.0 9.0 0.00 0.00 0.00 92 1026.1
20210120152712 58 58 4.0 9.0 0.00 0.00 0.00 92 1026.2
20210120152613 58 49 4.0 9.0 0.00 0.00 0.00 92 1026.1
20210120152520 58 61 4.0 9.0 0.00 0.00 0.00 92 1026.1
20210120152412 58 51 5.0 9.0 0.00 0.00 0.00 92 1026.1
20210120152311 58 38 5.0 9.0 0.00 0.00 0.00 92 1026.1
20210120152215 58 13 5.0 9.0 0.00 0.00 0.00 92 1026.1
20210120152113 58 62 5.0 9.0 0.00 0.00 0.00 92 1026.1
20210120152021 58 28 6.0 9.0 0.00 0.00 0.00 92 1026.2
20210120151916 58 51 6.0 9.0 0.00 0.00 0.00 92 1026.2
20210120151811 58 21 6.0 9.0 0.00 0.00 0.00 92 1026.2
20210120151714 58 34 6.0 9.0 0.00 0.00 0.00 92 1026.2
20210120151614 58 31 5.0 9.0 0.00 0.00 0.00 92 1026.2
20210120151520 58 11 4.0 9.0 0.00 0.00 0.00 92 1026.1
20210120151412 58 21 3.0 4.0 0.00 0.00 0.00 92 1026.1
20210120151313 58 42 3.0 4.0 0.00 0.00 0.00 92 1026.1
20210120151213 58 34 3.0 5.0 0.00 0.00 0.00 92 1026.1
20210120151111 58 25 3.0 5.0 0.00 0.00 0.00 92 1026.1
20210120151020 58 55 4.0 7.0 0.00 0.00 0.00 92 1026.0
20210120150914 58 58 3.0 7.0 0.00 0.00 0.00 92 1025.9
20210120150855 58 10 3.0 7.0 0.00 0.00 0.00 92 1025.8
20210120150835 58 25 3.0 7.0 0.00 0.00 0.00 92 1025.9
20210120150808 58 86 3.0 7.0 0.00 0.00 0.00 92 1025.9
20210120150742 58 34 3.0 7.0 0.00 0.00 0.00 92 1025.8
20210120150412 58 61 4.0 7.0 0.00 0.00 0.00 92 1025.8
20210120150315 58 51 4.0 7.0 0.00 0.00 0.00 92 1025.7
20210120150219 58 44 4.0 7.0 0.00 0.00 0.00 92 1025.8
20210120150113 58 65 5.0 7.0 0.00 0.00 0.00 92 1025.8
20210120150023 58 73 5.0 6.0 0.00 0.00 0.00 92 1025.7
20210120145911 58 35 5.0 6.0 0.00 0.00 0.00 92 1025.7
20210120145812 58 38 5.0 6.0 0.00 0.00 0.00 92 1025.6
20210120145712 58 45 3.0 6.0 0.00 0.00 0.00 92 1025.7
20210120145616 58 59 3.0 5.0 0.00 0.00 0.00 92 1025.6
20210120145527 58 79 4.0 5.0 0.00 0.00 0.00 92 1025.6
20210120145413 58 72 4.0 5.0 0.00 0.00 0.00 92 1025.7
20210120145312 58 24 3.0 6.0 0.00 0.00 0.00 92 1025.6
20210120145218 58 72 2.0 6.0 0.00 0.00 0.00 92 1025.6
20210120145114 58 52 2.0 7.0 0.00 0.00 0.00 92 1025.6
20210120145020 58 41 2.0 7.0 0.00 0.00 0.00 92 1025.7
20210120144912 58 35 3.0 9.0 0.00 0.00 0.00 92 1025.6
20210120144816 58 41 4.0 9.0 0.00 0.00 0.00 92 1025.7
20210120144714 58 63 3.0 9.0 0.00 0.00 0.00 92 1025.7
20210120144611 58 103 2.0 9.0 0.00 0.00 0.00 92 1025.7
20210120144523 58 72 3.0 9.0 0.00 0.00 0.00 92 1025.7
20210120144412 58 38 4.0 9.0 0.00 0.00 0.00 92 1025.7
20210120144312 58 0 5.0 9.0 0.00 0.00 0.00 92 1025.6
20210120144212 58 28 5.0 9.0 0.00 0.00 0.00 92 1025.7
20210120144114 58 24 5.0 9.0 0.00 0.00 0.00 92 1025.6
20210120144022 58 39 4.0 9.0 0.00 0.00 0.00 92 1025.6
20210120143912 58 41 3.0 7.0 0.00 0.00 0.00 92 1025.6
20210120143815 58 13 2.0 7.0 0.00 0.00 0.00 92 1025.5
20210120143711 58 35 3.0 7.0 0.00 0.00 0.00 92 1025.5
20210120143611 58 62 4.0 7.0 0.00 0.00 0.00 92 1025.5
20210120143527 58 63 4.0 7.0 0.00 0.00 0.00 92 1025.5
20210120143412 58 59 4.0 6.0 0.00 0.00 0.00 92 1025.6
20210120143315 58 59 3.0 6.0 0.00 0.00 0.00 92 1025.5
20210120143213 58 55 3.0 6.0 0.00 0.00 0.00 92 1025.4
20210120143114 58 18 4.0 6.0 0.00 0.00 0.00 92 1025.5
20210120143020 58 59 5.0 6.0 0.00 0.00 0.00 92 1025.5
20210120142916 58 47 4.0 6.0 0.00 0.00 0.00 92 1025.4
20210120142811 57 49 4.0 6.0 0.00 0.00 0.00 92 1025.4
20210120142710 57 66 4.0 6.0 0.00 0.00 0.00 92 1025.4
20210120142611 57 71 4.0 6.0 0.00 0.00 0.00 92 1025.4
20210120142521 57 68 3.0 6.0 0.00 0.00 0.00 92 1025.3
20210120142410 57 55 4.0 6.0 0.00 0.00 0.00 93 1025.4
20210120142311 57 80 5.0 6.0 0.00 0.00 0.00 92 1025.4
20210120142220 57 44 5.0 6.0 0.00 0.00 0.00 92 1025.4
20210120142118 57 56 5.0 6.0 0.00 0.00 0.00 93 1025.4
20210120142022 57 66 5.0 6.0 0.00 0.00 0.00 93 1025.4
20210120141911 57 44 4.0 6.0 0.00 0.00 0.00 93 1025.4
20210120141811 57 31 4.0 6.0 0.00 0.00 0.00 93 1025.4
20210120141710 57 83 5.0 6.0 0.00 0.00 0.00 93 1025.4
20210120141611 57 47 4.0 7.0 0.00 0.00 0.00 93 1025.4
20210120141537 57 63 3.0 9.0 0.00 0.00 0.00 93 1025.5
20210120141410 57 89 3.0 9.0 0.00 0.00 0.00 93 1025.4
20210120141312 57 62 4.0 9.0 0.00 0.00 0.00 93 1025.4
20210120141229 57 23 4.0 9.0 0.00 0.00 0.00 93 1025.5
20210120141111 57 42 4.0 9.0 0.00 0.00 0.00 93 1025.4
20210120141021 57 92 4.0 9.0 0.00 0.00 0.00 93 1025.5
20210120140912 57 72 5.0 9.0 0.00 0.00 0.00 93 1025.4
20210120140813 57 86 6.0 9.0 0.00 0.00 0.00 92 1025.4
20210120140711 57 65 6.0 9.0 0.00 0.00 0.00 92 1025.4
20210120140612 57 85 6.0 9.0 0.00 0.00 0.00 92 1025.5
20210120140531 57 83 5.0 9.0 0.00 0.00 0.00 92 1025.4
20210120140429 57 45 4.0 9.0 0.00 0.00 0.00 92 1025.4
20210120140311 57 82 5.0 9.0 0.00 0.00 0.00 92 1025.4
20210120140212 57 78 5.0 9.0 0.00 0.00 0.00 92 1025.4
20210120140112 57 80 6.0 9.0 0.00 0.00 0.00 92 1025.4
20210120140039 57 38 6.0 9.0 0.00 0.00 0.00 92 1025.5
20210120135911 57 35 5.0 9.0 0.00 0.00 0.00 92 1025.5
20210120135818 57 27 4.0 9.0 0.00 0.00 0.00 92 1025.5
20210120135710 57 45 4.0 9.0 0.00 0.00 0.00 92 1025.5
20210120135610 57 54 4.0 9.0 0.00 0.00 0.00 92 1025.6
20210120135530 57 45 5.0 9.0 0.00 0.00 0.00 92 1025.5
20210120135410 57 48 6.0 9.0 0.00 0.00 0.00 92 1025.5
20210120135310 57 45 6.0 9.0 0.00 0.00 0.00 92 1025.6
20210120135214 57 27 6.0 9.0 0.00 0.00 0.00 92 1025.6
20210120135110 57 41 4.0 9.0 0.00 0.00 0.00 92 1025.6
20210120135021 57 54 5.0 9.0 0.00 0.00 0.00 92 1025.6
20210120134910 57 0 5.0 9.0 0.00 0.00 0.00 92 1025.6
20210120134820 57 13 5.0 9.0 0.00 0.00 0.00 92 1025.5
20210120134712 57 21 4.0 6.0 0.00 0.00 0.00 92 1025.5
20210120134610 57 11 2.0 6.0 0.00 0.00 0.00 92 1025.5
20210120134520 57 358 2.0 6.0 0.00 0.00 0.00 92 1025.5
20210120134410 57 351 2.0 6.0 0.00 0.00 0.00 92 1025.5
20210120134310 57 354 3.0 7.0 0.00 0.00 0.00 92 1025.5
20210120134223 57 42 5.0 9.0 0.00 0.00 0.00 92 1025.5
20210120134120 57 37 5.0 9.0 0.00 0.00 0.00 92 1025.5
20210120134022 57 32 4.0 9.0 0.00 0.00 0.00 92 1025.4
20210120133911 57 30 4.0 10.0 0.00 0.00 0.00 92 1025.5
20210120133811 57 56 4.0 10.0 0.00 0.00 0.00 92 1025.4
20210120133710 57 45 3.0 10.0 0.00 0.00 0.00 92 1025.4
20210120133611 57 21 4.0 10.0 0.00 0.00 0.00 92 1025.4
20210120133522 57 30 5.0 10.0 0.00 0.00 0.00 92 1025.3
20210120133414 57 32 6.0 10.0 0.00 0.00 0.00 92 1025.3
20210120133310 57 30 6.0 10.0 0.00 0.00 0.00 92 1025.2
20210120133210 57 18 5.0 10.0 0.00 0.00 0.00 92 1025.3
20210120133111 57 35 5.0 10.0 0.00 0.00 0.00 92 1025.2
20210120133022 57 62 5.0 10.0 0.00 0.00 0.00 92 1025.1
20210120132911 57 35 4.0 9.0 0.00 0.00 0.00 92 1025.2
20210120132810 57 10 4.0 9.0 0.00 0.00 0.00 92 1025.2
20210120132712 57 52 5.0 9.0 0.00 0.00 0.00 92 1025.2
20210120132611 57 59 6.0 9.0 0.00 0.00 0.00 92 1025.2
20210120132524 57 32 6.0 9.0 0.00 0.00 0.00 92 1025.2
20210120132425 57 65 6.0 9.0 0.00 0.00 0.00 91 1025.2
20210120132309 57 58 6.0 9.0 0.00 0.00 0.00 91 1025.3
20210120132218 57 62 6.0 9.0 0.00 0.00 0.00 91 1025.3
20210120132112 57 80 5.0 9.0 0.00 0.00 0.00 91 1025.3
20210120132024 57 78 4.0 7.0 0.00 0.00 0.00 91 1025.2
20210120131909 57 59 3.0 7.0 0.00 0.00 0.00 91 1025.3
20210120131820 57 51 3.0 7.0 0.00 0.00 0.00 91 1025.3
20210120131718 57 44 3.0 7.0 0.00 0.00 0.00 91 1025.4
20210120131624 57 75 3.0 7.0 0.00 0.00 0.00 91 1025.2
20210120131517 57 56 5.0 7.0 0.00 0.00 0.00 91 1025.2
20210120131410 57 73 6.0 7.0 0.00 0.00 0.00 91 1025.3
20210120131309 57 59 4.0 7.0 0.00 0.00 0.00 91 1025.3
20210120131210 57 48 3.0 5.0 0.00 0.00 0.00 91 1025.4
20210120131109 57 48 2.0 5.0 0.00 0.00 0.00 91 1025.3
20210120131030 57 63 3.0 5.0 0.00 0.00 0.00 91 1025.3
20210120130909 57 58 3.0 5.0 0.00 0.00 0.00 91 1025.3
20210120130814 57 56 3.0 5.0 0.00 0.00 0.00 91 1025.3
20210120130712 57 58 3.0 5.0 0.00 0.00 0.00 91 1025.3
20210120130612 57 59 4.0 5.0 0.00 0.00 0.00 91 1025.3
20210120130515 57 72 4.0 5.0 0.00 0.00 0.00 91 1025.3
20210120130420 57 44 3.0 5.0 0.00 0.00 0.00 91 1025.3
20210120130312 57 73 3.0 5.0 0.00 0.00 0.00 91 1025.3
20210120130212 57 52 3.0 5.0 0.00 0.00 0.00 91 1025.3
20210120130109 57 35 3.0 5.0 0.00 0.00 0.00 91 1025.3
20210120130022 57 48 3.0 5.0 0.00 0.00 0.00 91 1025.3
20210120125911 57 44 3.0 5.0 0.00 0.00 0.00 91 1025.2
20210120125814 57 56 3.0 5.0 0.00 0.00 0.00 91 1025.3
20210120125710 57 72 3.0 5.0 0.00 0.00 0.00 91 1025.2
20210120125608 57 42 3.0 4.0 0.00 0.00 0.00 91 1025.3
20210120125520 57 51 3.0 4.0 0.00 0.00 0.00 91 1025.3
20210120125409 57 51 3.0 4.0 0.00 0.00 0.00 91 1025.2
20210120125312 57 63 3.0 4.0 0.00 0.00 0.00 91 1025.2
20210120125209 57 58 3.0 4.0 0.00 0.00 0.00 91 1025.2
20210120125108 57 62 3.0 5.0 0.00 0.00 0.00 91 1025.2
20210120125019 57 55 3.0 5.0 0.00 0.00 0.00 91 1025.3
20210120124910 57 69 2.0 5.0 0.00 0.00 0.00 91 1025.3
20210120124808 57 72 2.0 5.0 0.00 0.00 0.00 91 1025.2
20210120124709 57 58 2.0 5.0 0.00 0.00 0.00 91 1025.2
20210120124612 57 55 2.0 5.0 0.00 0.00 0.00 91 1025.2
20210120124522 57 58 3.0 5.0 0.00 0.00 0.00 91 1025.2
20210120124410 57 58 3.0 5.0 0.00 0.00 0.00 91 1025.1
20210120124314 57 65 3.0 5.0 0.00 0.00 0.00 91 1025.3
20210120124209 57 61 3.0 5.0 0.00 0.00 0.00 91 1025.2
20210120124108 57 39 2.0 5.0 0.00 0.00 0.00 91 1025.3
20210120124019 57 37 2.0 5.0 0.00 0.00 0.00 91 1025.1
20210120123912 57 20 3.0 6.0 0.00 0.00 0.00 91 1025.2
20210120123810 57 56 4.0 7.0 0.00 0.00 0.00 91 1025.2
20210120123710 57 55 3.0 7.0 0.00 0.00 0.00 91 1025.2
20210120123614 57 23 2.0 7.0 0.00 0.00 0.00 91 1025.2
20210120123514 57 55 2.0 7.0 0.00 0.00 0.00 91 1025.2
20210120123409 57 37 3.0 7.0 0.00 0.00 0.00 91 1025.3
20210120123308 57 48 3.0 7.0 0.00 0.00 0.00 91 1025.2
20210120123210 57 39 4.0 7.0 0.00 0.00 0.00 91 1025.2
20210120123108 57 52 5.0 7.0 0.00 0.00 0.00 91 1025.2
20210120123030 57 58 5.0 9.0 0.00 0.00 0.00 91 1025.3
20210120122916 57 41 5.0 9.0 0.00 0.00 0.00 91 1025.3
20210120122812 57 35 4.0 9.0 0.00 0.00 0.00 91 1025.2
20210120122707 57 27 5.0 9.0 0.00 0.00 0.00 91 1025.2
20210120122611 57 37 4.0 9.0 0.00 0.00 0.00 91 1025.2
20210120122521 57 48 4.0 9.0 0.00 0.00 0.00 91 1025.2
20210120122408 57 23 5.0 9.0 0.00 0.00 0.00 91 1025.3
20210120122309 57 52 4.0 9.0 0.00 0.00 0.00 91 1025.2
20210120122213 57 39 4.0 9.0 0.00 0.00 0.00 91 1025.3
20210120122109 57 30 5.0 9.0 0.00 0.00 0.00 91 1025.3
20210120122025 57 41 5.0 9.0 0.00 0.00 0.00 91 1025.3
20210120121909 57 51 4.0 9.0 0.00 0.00 0.00 91 1025.3
20210120121807 57 48 5.0 9.0 0.00 0.00 0.00 91 1025.4
20210120121709 57 35 4.0 9.0 0.00 0.00 0.00 91 1025.3
20210120121608 57 30 3.0 9.0 0.00 0.00 0.00 91 1025.4
20210120121519 57 47 4.0 10.0 0.00 0.00 0.00 91 1025.3
20210120121411 57 47 5.0 10.0 0.00 0.00 0.00 91 1025.3
20210120121308 57 30 5.0 11.0 0.00 0.00 0.00 91 1025.3
20210120121211 57 35 6.0 11.0 0.00 0.00 0.00 91 1025.3
20210120121109 57 48 6.0 11.0 0.00 0.00 0.00 91 1025.3
20210120121016 57 28 5.0 11.0 0.00 0.00 0.00 91 1025.3
20210120120911 57 38 5.0 11.0 0.00 0.00 0.00 91 1025.3
20210120120807 57 32 6.0 11.0 0.00 0.00 0.00 91 1025.3
20210120120728 57 39 7.0 11.0 0.00 0.00 0.00 91 1025.4
20210120120609 57 24 8.0 11.0 0.00 0.00 0.00 91 1025.3
20210120120524 57 24 7.0 11.0 0.00 0.00 0.00 91 1025.3
20210120120408 57 25 7.0 11.0 0.00 0.00 0.00 91 1025.4
20210120120316 57 23 6.0 10.0 0.00 0.00 0.00 91 1025.4
20210120120208 57 32 6.0 10.0 0.00 0.00 0.00 90 1025.3
20210120120125 57 30 6.0 10.0 0.00 0.00 0.00 90 1025.3
20210120120021 57 14 6.0 10.0 0.00 0.00 0.00 90 1025.3
20210120115909 57 37 6.0 10.0 0.00 0.00 0.00 91 1025.3
20210120115808 57 45 6.0 9.0 0.00 0.00 0.00 91 1025.2
20210120115710 57 17 5.0 9.0 0.00 0.00 0.00 90 1025.3
20210120115608 57 62 6.0 9.0 0.00 0.00 0.00 90 1025.2
20210120115522 57 38 7.0 9.0 0.00 0.00 0.00 90 1025.2
20210120115405 57 38 7.0 9.0 0.00 0.00 0.00 90 1025.2
20210120115306 57 20 6.0 9.0 0.00 0.00 0.00 90 1025.2
20210120115205 57 24 5.0 9.0 0.00 0.00 0.00 90 1025.3
20210120115059 57 39 5.0 9.0 0.00 0.00 0.00 90 1025.3
20210120115014 57 35 5.0 9.0 0.00 0.00 0.00 90 1025.3
20210120114857 57 41 4.0 6.0 0.00 0.00 0.00 90 1025.3
20210120114800 57 49 2.0 6.0 0.00 0.00 0.00 90 1025.3
20210120114656 57 30 3.0 6.0 0.00 0.00 0.00 90 1025.2
20210120114548 57 37 4.0 6.0 0.00 0.00 0.00 90 1025.2
20210120114448 57 39 4.0 6.0 0.00 0.00 0.00 90 1025.3
20210120114347 57 51 4.0 7.0 0.00 0.00 0.00 90 1025.3
20210120114247 57 58 5.0 9.0 0.00 0.00 0.00 90 1025.3
20210120114151 57 38 4.0 10.0 0.00 0.00 0.00 90 1025.3
20210120114047 57 27 4.0 10.0 0.00 0.00 0.00 89 1025.4
20210120113946 57 18 4.0 10.0 0.00 0.00 0.00 89 1025.4
20210120113846 57 17 4.0 10.0 0.00 0.00 0.00 89 1025.4
20210120113751 57 62 4.0 10.0 0.00 0.00 0.00 89 1025.5
20210120113643 57 30 4.0 10.0 0.00 0.00 0.00 89 1025.5
20210120113554 57 28 5.0 10.0 0.00 0.00 0.00 89 1025.4
20210120113439 57 45 6.0 10.0 0.00 0.00 0.00 89 1025.5
20210120113339 57 49 7.0 10.0 0.00 0.00 0.00 89 1025.5
20210120113243 57 30 6.0 10.0 0.00 0.00 0.00 89 1025.5
20210120113127 57 34 5.0 10.0 0.00 0.00 0.00 89 1025.5
20210120113036 57 0 6.0 10.0 0.00 0.00 0.00 89 1025.5
20210120112926 57 21 5.0 10.0 0.00 0.00 0.00 89 1025.5
20210120112822 57 24 4.0 10.0 0.00 0.00 0.00 89 1025.5
20210120112722 57 35 6.0 10.0 0.00 0.00 0.00 89 1025.5
20210120112631 57 44 5.0 10.0 0.00 0.00 0.00 89 1025.5
20210120112528 57 17 4.0 10.0 0.00 0.00 0.00 89 1025.6
20210120112427 57 59 4.0 10.0 0.00 0.00 0.00 89 1025.5
20210120112322 57 331 4.0 10.0 0.00 0.00 0.00 89 1025.6
20210120112217 57 28 6.0 10.0 0.00 0.00 0.00 89 1025.6
20210120112119 57 23 7.0 10.0 0.00 0.00 0.00 89 1025.5
20210120112033 57 24 6.0 10.0 0.00 0.00 0.00 89 1025.5
20210120111918 58 49 5.0 10.0 0.00 0.00 0.00 89 1025.5
20210120111820 57 18 5.0 9.0 0.00 0.00 0.00 89 1025.5
20210120111722 58 18 6.0 9.0 0.00 0.00 0.00 89 1025.5
20210120111619 58 23 6.0 9.0 0.00 0.00 0.00 89 1025.4
20210120111521 58 41 4.0 9.0 0.00 0.00 0.00 88 1025.4
20210120111418 58 21 5.0 9.0 0.00 0.00 0.00 88 1025.4
20210120111316 58 20 5.0 9.0 0.00 0.00 0.00 88 1025.4
20210120111218 58 0 6.0 9.0 0.00 0.00 0.00 88 1025.4
20210120111118 58 21 5.0 9.0 0.00 0.00 0.00 88 1025.5
20210120111024 58 348 4.0 9.0 0.00 0.00 0.00 88 1025.5
20210120110921 58 0 3.0 7.0 0.00 0.00 0.00 88 1025.5
20210120110819 58 353 2.0 7.0 0.00 0.00 0.00 88 1025.4
20210120110716 58 0 2.0 9.0 0.00 0.00 0.00 88 1025.5
20210120110619 58 1 3.0 9.0 0.00 0.00 0.00 88 1025.5
20210120110523 58 357 3.0 9.0 0.00 0.00 0.00 88 1025.5
20210120110422 58 343 2.0 9.0 0.00 0.00 0.00 88 1025.4
20210120110318 58 0 2.0 9.0 0.00 0.00 0.00 88 1025.5
20210120110226 58 27 4.0 9.0 0.00 0.00 0.00 88 1025.5
20210120110117 58 37 3.0 9.0 0.00 0.00 0.00 88 1025.5
20210120110036 58 17 3.0 9.0 0.00 0.00 0.00 88 1025.4
20210120105919 58 3 4.0 9.0 0.00 0.00 0.00 88 1025.4
20210120105817 58 20 4.0 9.0 0.00 0.00 0.00 88 1025.4
20210120105719 58 326 4.0 9.0 0.00 0.00 0.00 88 1025.5
20210120105619 58 27 5.0 9.0 0.00 0.00 0.00 88 1025.4
20210120105534 58 23 5.0 9.0 0.00 0.00 0.00 88 1025.5
20210120105420 58 6 6.0 9.0 0.00 0.00 0.00 88 1025.4
20210120105319 58 351 4.0 9.0 0.00 0.00 0.00 88 1025.3
20210120105218 58 8 3.0 9.0 0.00 0.00 0.00 88 1025.3
20210120105116 58 11 3.0 9.0 0.00 0.00 0.00 88 1025.2
20210120105026 58 47 4.0 9.0 0.00 0.00 0.00 88 1025.2
20210120104920 58 14 4.0 9.0 0.00 0.00 0.00 88 1025.1
20210120104819 58 35 5.0 9.0 0.00 0.00 0.00 88 1025.1
20210120104718 58 16 5.0 9.0 0.00 0.00 0.00 88 1025.1
20210120104618 58 1 5.0 9.0 0.00 0.00 0.00 88 1025.1
20210120104524 58 358 4.0 10.0 0.00 0.00 0.00 88 1025.1
20210120104421 58 355 4.0 10.0 0.00 0.00 0.00 87 1025.1
20210120104321 58 0 5.0 10.0 0.00 0.00 0.00 87 1025.1
20210120104219 58 0 4.0 10.0 0.00 0.00 0.00 87 1025.0
20210120104120 58 20 4.0 10.0 0.00 0.00 0.00 87 1025.0
20210120104020 58 17 4.0 10.0 0.00 0.00 0.00 87 1025.1
20210120103919 58 0 4.0 10.0 0.00 0.00 0.00 87 1025.1
20210120103817 58 0 4.0 10.0 0.00 0.00 0.00 87 1025.0
20210120103717 58 347 5.0 10.0 0.00 0.00 0.00 87 1025.1
20210120103623 58 23 5.0 10.0 0.00 0.00 0.00 87 1025.0
20210120103521 58 11 4.0 7.0 0.00 0.00 0.00 87 1025.1
20210120103419 58 23 3.0 7.0 0.00 0.00 0.00 87 1025.1
20210120103318 58 331 3.0 7.0 0.00 0.00 0.00 87 1025.1
20210120103220 58 27 4.0 7.0 0.00 0.00 0.00 87 1025.2
20210120103121 58 38 5.0 7.0 0.00 0.00 0.00 87 1025.2
20210120103036 58 0 5.0 7.0 0.00 0.00 0.00 87 1025.2
20210120102919 58 354 4.0 6.0 0.00 0.00 0.00 87 1025.2
20210120102833 58 3 4.0 7.0 0.00 0.00 0.00 87 1025.2
20210120102719 58 0 3.0 7.0 0.00 0.00 0.00 87 1025.3
20210120102620 58 0 3.0 7.0 0.00 0.00 0.00 87 1025.3
20210120102533 58 333 3.0 7.0 0.00 0.00 0.00 87 1025.2
20210120102417 58 7 2.0 7.0 0.00 0.00 0.00 87 1025.2
20210120102318 58 42 3.0 7.0 0.00 0.00 0.00 87 1025.2
20210120102249 58 38 4.0 7.0 0.00 0.00 0.00 87 1025.0
20210120102234 58 4 4.0 7.0 0.00 0.00 0.00 87 1025.2
20210120102212 58 7 4.0 7.0 0.00 0.00 0.00 87 1025.1
20210120102147 58 4 5.0 7.0 0.00 0.00 0.00 87 1025.0
20210120101818 58 27 2.0 6.0 0.00 0.00 0.00 87 1025.0
20210120101718 58 3 2.0 6.0 0.00 0.00 0.00 87 1025.0
20210120101618 58 0 2.0 6.0 0.00 0.00 0.00 87 1025.0
20210120101521 58 8 3.0 6.0 0.00 0.00 0.00 87 1024.9
20210120101417 58 0 3.0 7.0 0.00 0.00 0.00 87 1024.9
20210120101328 58 0 3.0 7.0 0.00 0.00 0.00 87 1025.0
20210120101218 58 348 3.0 7.0 0.00 0.00 0.00 87 1024.9
20210120101121 58 30 4.0 7.0 0.00 0.00 0.00 87 1024.9
20210120101023 58 17 4.0 7.0 0.00 0.00 0.00 87 1024.9
20210120100917 58 37 4.0 7.0 0.00 0.00 0.00 87 1024.9
20210120100819 58 24 4.0 7.0 0.00 0.00 0.00 87 1024.9
20210120100719 58 347 4.0 7.0 0.00 0.00 0.00 87 1024.8
20210120100619 58 14 5.0 7.0 0.00 0.00 0.00 87 1024.8
20210120100521 58 37 5.0 7.0 0.00 0.00 0.00 87 1024.8
20210120100418 58 25 5.0 7.0 0.00 0.00 0.00 87 1024.8
20210120100318 58 20 4.0 10.0 0.00 0.00 0.00 87 1024.9
20210120100217 58 25 4.0 10.0 0.00 0.00 0.00 87 1024.9
20210120100120 59 30 3.0 10.0 0.00 0.00 0.00 87 1024.9
20210120100032 59 21 3.0 10.0 0.00 0.00 0.00 87 1024.9
20210120095920 59 24 4.0 10.0 0.00 0.00 0.00 87 1025.0
20210120095818 59 11 4.0 10.0 0.00 0.00 0.00 87 1025.0
20210120095717 59 3 3.0 10.0 0.00 0.00 0.00 87 1025.0
20210120095619 59 32 4.0 10.0 0.00 0.00 0.00 87 1024.9
20210120095520 59 32 6.0 10.0 0.00 0.00 0.00 87 1025.0
20210120095418 59 27 6.0 10.0 0.00 0.00 0.00 87 1024.9
20210120095317 59 44 6.0 9.0 0.00 0.00 0.00 87 1024.9
20210120095217 59 13 5.0 9.0 0.00 0.00 0.00 87 1024.9
20210120095124 59 47 5.0 9.0 0.00 0.00 0.00 87 1024.9
20210120095022 59 39 4.0 9.0 0.00 0.00 0.00 87 1024.9
20210120094919 59 20 5.0 10.0 0.00 0.00 0.00 87 1024.9
20210120094818 59 20 5.0 10.0 0.00 0.00 0.00 87 1024.9
20210120094718 59 31 5.0 10.0 0.00 0.00 0.00 87 1025.0
20210120094617 59 25 5.0 10.0 0.00 0.00 0.00 87 1024.9
20210120094529 59 0 4.0 10.0 0.00 0.00 0.00 87 1025.0
20210120094420 59 34 4.0 10.0 0.00 0.00 0.00 87 1024.9
20210120094318 59 13 5.0 10.0 0.00 0.00 0.00 87 1024.9
20210120094217 59 0 6.0 10.0 0.00 0.00 0.00 87 1024.9
20210120094117 59 45 7.0 10.0 0.00 0.00 0.00 87 1024.9
20210120094032 59 37 7.0 10.0 0.00 0.00 0.00 87 1025.0
20210120093919 59 42 7.0 10.0 0.00 0.00 0.00 87 1024.9
20210120093817 59 13 6.0 10.0 0.00 0.00 0.00 87 1024.9
20210120093718 59 31 6.0 10.0 0.00 0.00 0.00 87 1025.0
20210120093621 59 13 5.0 10.0 0.00 0.00 0.00 87 1025.0
20210120093525 59 39 5.0 11.0 0.00 0.00 0.00 87 1025.2
20210120093417 59 42 5.0 11.0 0.00 0.00 0.00 87 1025.2
20210120093317 59 20 4.0 11.0 0.00 0.00 0.00 87 1025.2
20210120093221 59 32 5.0 11.0 0.00 0.00 0.00 87 1025.2
20210120093118 59 0 5.0 11.0 0.00 0.00 0.00 87 1025.2
20210120093026 59 0 5.0 11.0 0.00 0.00 0.00 87 1025.3
20210120092918 59 32 6.0 11.0 0.00 0.00 0.00 87 1025.3
20210120092817 59 13 6.0 11.0 0.00 0.00 0.00 87 1025.3
20210120092725 59 38 7.0 11.0 0.00 0.00 0.00 87 1025.2
20210120092619 59 32 7.0 11.0 0.00 0.00 0.00 87 1025.2
20210120092520 59 58 7.0 11.0 0.00 0.00 0.00 87 1025.2
20210120092419 59 38 7.0 11.0 0.00 0.00 0.00 87 1025.2
20210120092318 59 52 6.0 11.0 0.00 0.00 0.00 87 1025.3
20210120092217 59 41 6.0 11.0 0.00 0.00 0.00 88 1025.3
20210120092118 59 45 7.0 11.0 0.00 0.00 0.00 88 1025.2
20210120092036 59 31 6.0 11.0 0.00 0.00 0.00 88 1025.3
20210120091918 59 45 6.0 11.0 0.00 0.00 0.00 88 1025.4
20210120091820 59 27 5.0 11.0 0.00 0.00 0.00 88 1025.4
20210120091720 59 31 4.0 11.0 0.00 0.00 0.00 88 1025.5
20210120091619 59 21 4.0 11.0 0.00 0.00 0.00 88 1025.5
20210120091525 59 13 7.0 11.0 0.00 0.00 0.00 88 1025.5
20210120091422 59 23 7.0 11.0 0.00 0.00 0.00 88 1025.5
20210120091318 59 35 5.0 11.0 0.00 0.00 0.00 88 1025.5
20210120091217 59 49 5.0 11.0 0.00 0.00 0.00 88 1025.4
20210120091117 59 21 7.0 11.0 0.00 0.00 0.00 88 1025.4
20210120091032 59 37 6.0 11.0 0.00 0.00 0.00 88 1025.4
20210120090918 59 37 5.0 10.0 0.00 0.00 0.00 88 1025.4
20210120090819 59 30 6.0 10.0 0.00 0.00 0.00 88 1025.4
20210120090718 59 10 6.0 10.0 0.00 0.00 0.00 88 1025.4
20210120090619 59 37 6.0 10.0 0.00 0.00 0.00 88 1025.5
20210120090519 59 35 6.0 10.0 0.00 0.00 0.00 88 1025.4
20210120090425 59 25 6.0 10.0 0.00 0.00 0.00 88 1025.5
20210120090319 59 32 6.0 10.0 0.00 0.00 0.00 88 1025.5
20210120090217 59 28 6.0 10.0 0.00 0.00 0.00 88 1025.4
20210120090117 59 27 6.0 10.0 0.00 0.00 0.00 88 1025.5
20210120090025 59 24 6.0 10.0 0.00 0.00 0.00 88 1025.5
20210120085918 59 6 6.0 10.0 0.00 0.00 0.00 88 1025.5
20210120085821 59 0 6.0 9.0 0.00 0.00 0.00 89 1025.6
20210120085718 59 37 6.0 9.0 0.00 0.00 0.00 89 1025.6
20210120085620 59 37 5.0 7.0 0.00 0.00 0.00 88 1025.5
20210120085519 59 41 6.0 9.0 0.00 0.00 0.00 88 1025.6
20210120085417 59 28 5.0 9.0 0.00 0.00 0.00 89 1025.7
20210120085316 59 18 4.0 9.0 0.00 0.00 0.00 89 1025.6
20210120085226 59 11 5.0 11.0 0.00 0.00 0.00 89 1025.6
20210120085216 59 34 6.0 11.0 0.00 0.00 0.00 89 1025.6
20210120085157 59 35 5.0 11.0 0.00 0.00 0.00 89 1025.7
20210120085101 59 32 5.0 11.0 0.00 0.00 0.00 89 1025.6
20210120084825 59 0 5.0 11.0 0.00 0.00 0.00 89 1025.6
20210120084722 59 32 6.0 11.0 0.00 0.00 0.00 89 1025.6
20210120084619 59 25 6.0 11.0 0.00 0.00 0.00 89 1025.5
20210120084524 59 30 5.0 11.0 0.00 0.00 0.00 89 1025.5
20210120084418 59 38 6.0 11.0 0.00 0.00 0.00 89 1025.5
20210120084320 59 20 5.0 11.0 0.00 0.00 0.00 89 1025.6
20210120084220 59 16 6.0 9.0 0.00 0.00 0.00 89 1025.5
20210120084117 59 8 7.0 9.0 0.00 0.00 0.00 89 1025.5
20210120084021 59 39 6.0 9.0 0.00 0.00 0.00 89 1025.6
20210120083921 59 16 4.0 9.0 0.00 0.00 0.00 89 1025.5
20210120083817 59 14 5.0 9.0 0.00 0.00 0.00 89 1025.5
20210120083723 59 0 6.0 9.0 0.00 0.00 0.00 89 1025.5
20210120083619 59 23 6.0 9.0 0.00 0.00 0.00 89 1025.5
20210120083523 59 24 6.0 9.0 0.00 0.00 0.00 89 1025.4
20210120083421 59 32 6.0 9.0 0.00 0.00 0.00 89 1025.4
20210120083319 59 23 5.0 9.0 0.00 0.00 0.00 89 1025.4
20210120083220 59 38 5.0 9.0 0.00 0.00 0.00 89 1025.4
20210120083117 59 38 6.0 9.0 0.00 0.00 0.00 89 1025.4
20210120083030 59 32 6.0 9.0 0.00 0.00 0.00 89 1025.4
20210120082917 59 6 6.0 9.0 0.00 0.00 0.00 89 1025.5
20210120082818 59 45 6.0 7.0 0.00 0.00 0.00 89 1025.5
20210120082716 59 24 6.0 7.0 0.00 0.00 0.00 89 1025.4
20210120082616 59 21 6.0 7.0 0.00 0.00 0.00 89 1025.5
20210120082521 59 42 6.0 7.0 0.00 0.00 0.00 89 1025.5
20210120082418 59 20 6.0 7.0 0.00 0.00 0.00 89 1025.5
20210120082319 59 35 6.0 7.0 0.00 0.00 0.00 89 1025.5
20210120082221 59 21 6.0 9.0 0.00 0.00 0.00 89 1025.5
20210120082126 59 30 4.0 9.0 0.00 0.00 0.00 89 1025.5
20210120082021 59 38 4.0 10.0 0.00 0.00 0.00 89 1025.5
20210120081917 59 30 5.0 10.0 0.00 0.00 0.00 89 1025.6
20210120081823 59 27 6.0 10.0 0.00 0.00 0.00 89 1025.6
20210120081719 59 28 6.0 10.0 0.00 0.00 0.00 89 1025.5
20210120081623 59 34 4.0 10.0 0.00 0.00 0.00 89 1025.4
20210120081525 59 20 4.0 10.0 0.00 0.00 0.00 89 1025.4
20210120081418 59 31 5.0 10.0 0.00 0.00 0.00 89 1025.4
20210120081317 59 23 6.0 10.0 0.00 0.00 0.00 89 1025.4
20210120081218 59 16 5.0 10.0 0.00 0.00 0.00 89 1025.3
20210120081119 59 6 6.0 10.0 0.00 0.00 0.00 89 1025.4
20210120081023 59 0 6.0 10.0 0.00 0.00 0.00 89 1025.3
20210120080920 59 47 6.0 10.0 0.00 0.00 0.00 89 1025.4
20210120080824 59 31 5.0 10.0 0.00 0.00 0.00 89 1025.3
20210120080721 59 23 6.0 10.0 0.00 0.00 0.00 89 1025.3
20210120080618 59 35 6.0 10.0 0.00 0.00 0.00 89 1025.3
20210120080520 59 28 5.0 9.0 0.00 0.00 0.00 89 1025.3
20210120080418 59 27 4.0 9.0 0.00 0.00 0.00 89 1025.3
20210120080317 59 30 4.0 9.0 0.00 0.00 0.00 89 1025.3
20210120080222 59 34 4.0 9.0 0.00 0.00 0.00 89 1025.3
20210120080119 59 39 4.0 9.0 0.00 0.00 0.00 89 1025.3
20210120080023 59 14 5.0 9.0 0.00 0.00 0.00 89 1025.3
20210120075917 59 16 6.0 10.0 0.00 0.00 0.00 89 1025.3
20210120075819 59 30 6.0 10.0 0.00 0.00 0.00 89 1025.3
20210120075726 59 25 6.0 10.0 0.00 0.00 0.00 89 1025.3
20210120075619 60 34 5.0 10.0 0.00 0.00 0.00 89 1025.4
20210120075521 60 358 4.0 10.0 0.00 0.00 0.00 89 1025.4
20210120075422 60 16 4.0 10.0 0.00 0.00 0.00 89 1025.4
20210120075319 60 42 6.0 10.0 0.00 0.00 0.00 89 1025.3
20210120075218 60 14 6.0 10.0 0.00 0.00 0.00 89 1025.4
20210120075125 60 6 6.0 10.0 0.00 0.00 0.00 89 1025.4
20210120075019 60 31 6.0 10.0 0.00 0.00 0.00 89 1025.4
20210120074919 60 21 5.0 10.0 0.00 0.00 0.00 89 1025.4
20210120074820 60 8 6.0 10.0 0.00 0.00 0.00 89 1025.5
20210120074720 60 0 7.0 10.0 0.00 0.00 0.00 89 1025.5
20210120074618 60 34 6.0 10.0 0.00 0.00 0.00 89 1025.5
20210120074522 60 30 6.0 10.0 0.00 0.00 0.00 89 1025.5
20210120074425 60 44 7.0 10.0 0.00 0.00 0.00 89 1025.6
20210120074317 60 34 6.0 10.0 0.00 0.00 0.00 89 1025.6
20210120074217 60 38 5.0 9.0 0.00 0.00 0.00 89 1025.7
20210120074118 60 23 5.0 9.0 0.00 0.00 0.00 89 1025.7
20210120074023 60 4 5.0 9.0 0.00 0.00 0.00 89 1025.8
20210120073921 60 0 4.0 9.0 0.00 0.00 0.00 89 1025.7
20210120073818 60 11 4.0 9.0 0.00 0.00 0.00 89 1025.8
20210120073721 60 37 4.0 9.0 0.00 0.00 0.00 89 1025.8
20210120073619 60 358 4.0 9.0 0.00 0.00 0.00 89 1025.7
20210120073520 60 3 5.0 9.0 0.00 0.00 0.00 89 1025.8
20210120073419 60 0 5.0 9.0 0.00 0.00 0.00 89 1025.7
20210120073318 60 16 4.0 9.0 0.00 0.00 0.00 89 1025.8
20210120073219 60 0 3.0 7.0 0.00 0.00 0.00 89 1025.7
20210120073134 60 341 4.0 7.0 0.00 0.00 0.00 89 1025.7
20210120073035 60 341 4.0 7.0 0.00 0.00 0.00 89 1025.7
20210120072924 60 341 4.0 7.0 0.00 0.00 0.00 89 1025.8
20210120072827 60 341 4.0 7.0 0.00 0.00 0.00 89 1025.7
20210120072721 60 8 4.0 7.0 0.00 0.00 0.00 89 1025.7
20210120072617 60 0 4.0 7.0 0.00 0.00 0.00 89 1025.7
20210120072522 60 17 4.0 7.0 0.00 0.00 0.00 89 1025.7
20210120072424 60 7 4.0 7.0 0.00 0.00 0.00 89 1025.6
20210120072321 60 16 4.0 6.0 0.00 0.00 0.00 89 1025.6
20210120072217 60 4 3.0 5.0 0.00 0.00 0.00 89 1025.7
20210120072117 60 30 3.0 5.0 0.00 0.00 0.00 89 1025.7
20210120072028 60 0 3.0 5.0 0.00 0.00 0.00 89 1025.8
20210120071918 60 0 3.0 5.0 0.00 0.00 0.00 89 1025.7
20210120071818 60 353 4.0 5.0 0.00 0.00 0.00 89 1025.9
20210120071722 60 0 3.0 5.0 0.00 0.00 0.00 89 1025.9
20210120071619 60 7 2.0 5.0 0.00 0.00 0.00 89 1025.8
20210120071519 60 6 2.0 5.0 0.00 0.00 0.00 89 1025.9
20210120071418 60 4 2.0 5.0 0.00 0.00 0.00 89 1025.8
20210120071320 60 357 2.0 6.0 0.00 0.00 0.00 89 1025.8
20210120071217 60 0 2.0 6.0 0.00 0.00 0.00 89 1025.8
20210120071117 60 0 2.0 6.0 0.00 0.00 0.00 89 1025.8
20210120071018 60 11 2.0 6.0 0.00 0.00 0.00 89 1025.8
20210120070924 60 0 3.0 6.0 0.00 0.00 0.00 89 1025.8
20210120070819 60 4 4.0 6.0 0.00 0.00 0.00 89 1025.9
20210120070718 60 0 4.0 6.0 0.00 0.00 0.00 89 1025.8
20210120070619 60 357 3.0 6.0 0.00 0.00 0.00 89 1025.8
20210120070526 60 0 4.0 6.0 0.00 0.00 0.00 89 1025.8
20210120070417 60 0 4.0 6.0 0.00 0.00 0.00 89 1025.7
20210120070320 60 355 3.0 5.0 0.00 0.00 0.00 89 1025.8
20210120070218 60 0 3.0 5.0 0.00 0.00 0.00 89 1025.7
20210120070126 60 0 3.0 5.0 0.00 0.00 0.00 89 1025.8
20210120070032 60 1 3.0 5.0 0.00 0.00 0.00 89 1025.8
20210120065917 60 344 3.0 5.0 0.00 0.00 0.00 89 1025.8
20210120065820 60 350 3.0 5.0 0.00 0.00 0.00 89 1025.8
20210120065716 60 337 3.0 6.0 0.00 0.00 0.00 88 1025.8
20210120065618 60 333 4.0 6.0 0.00 0.00 0.00 88 1025.7
20210120065519 60 0 3.0 6.0 0.00 0.00 0.00 88 1025.7
20210120065419 60 321 3.0 6.0 0.00 0.00 0.00 88 1025.7
20210120065327 60 340 3.0 6.0 0.00 0.00 0.00 88 1025.6
20210120065217 60 0 3.0 6.0 0.00 0.00 0.00 88 1025.6
20210120065117 60 336 3.0 6.0 0.00 0.00 0.00 88 1025.6
20210120065032 60 0 2.0 6.0 0.00 0.00 0.00 88 1025.6
20210120064918 60 357 3.0 6.0 0.00 0.00 0.00 88 1025.7
20210120064818 60 0 3.0 6.0 0.00 0.00 0.00 88 1025.7
20210120064720 60 341 3.0 6.0 0.00 0.00 0.00 88 1025.8
20210120064617 60 348 2.0 6.0 0.00 0.00 0.00 88 1025.8
20210120064524 60 333 2.0 6.0 0.00 0.00 0.00 88 1025.8
20210120064417 60 357 2.0 6.0 0.00 0.00 0.00 88 1025.8
20210120064319 60 340 3.0 6.0 0.00 0.00 0.00 88 1025.8
20210120064217 60 337 4.0 6.0 0.00 0.00 0.00 88 1025.8
20210120064117 60 326 4.0 6.0 0.00 0.00 0.00 88 1025.8
20210120064036 60 355 4.0 6.0 0.00 0.00 0.00 88 1025.8
20210120063920 60 0 4.0 6.0 0.00 0.00 0.00 88 1025.8
20210120063818 60 347 3.0 6.0 0.00 0.00 0.00 88 1025.7
20210120063717 60 6 4.0 6.0 0.00 0.00 0.00 88 1025.7
20210120063618 60 340 4.0 6.0 0.00 0.00 0.00 88 1025.7
20210120063520 60 0 3.0 6.0 0.00 0.00 0.00 88 1025.6
20210120063423 60 347 4.0 6.0 0.00 0.00 0.00 88 1025.7
20210120063319 60 348 3.0 6.0 0.00 0.00 0.00 88 1025.8
20210120063222 60 347 3.0 6.0 0.00 0.00 0.00 88 1025.8
20210120063119 60 340 3.0 6.0 0.00 0.00 0.00 88 1025.9
20210120063035 60 0 4.0 6.0 0.00 0.00 0.00 88 1026.0
20210120062918 60 341 4.0 6.0 0.00 0.00 0.00 88 1026.0
20210120062817 60 334 3.0 5.0 0.00 0.00 0.00 88 1026.0
20210120062717 60 336 3.0 5.0 0.00 0.00 0.00 88 1025.9
20210120062619 60 331 3.0 5.0 0.00 0.00 0.00 88 1025.9
20210120062526 59 344 3.0 5.0 0.00 0.00 0.00 88 1026.0
20210120062421 60 324 3.0 4.0 0.00 0.00 0.00 88 1026.1
20210120062318 59 314 3.0 4.0 0.00 0.00 0.00 88 1026.0
20210120062215 59 326 3.0 4.0 0.00 0.00 0.00 88 1026.1
20210120062111 59 323 3.0 5.0 0.00 0.00 0.00 88 1026.1
20210120062019 59 313 3.0 5.0 0.00 0.00 0.00 89 1026.1
20210120061908 59 327 3.0 5.0 0.00 0.00 0.00 89 1026.1
20210120061809 59 326 3.0 5.0 0.00 0.00 0.00 89 1026.0
20210120061705 59 343 2.0 5.0 0.00 0.00 0.00 89 1026.0
20210120061603 59 0 2.0 5.0 0.00 0.00 0.00 89 1025.9
20210120061522 59 337 2.0 5.0 0.00 0.00 0.00 89 1025.9
20210120061400 59 337 3.0 5.0 0.00 0.00 0.00 89 1025.7
20210120061300 59 337 4.0 5.0 0.00 0.00 0.00 89 1025.7
20210120061201 59 331 4.0 5.0 0.00 0.00 0.00 89 1025.7
20210120061100 59 317 2.0 4.0 0.00 0.00 0.00 89 1025.7
20210120061005 59 51 1.0 2.0 0.00 0.00 0.00 89 1025.7
20210120060901 59 51 2.0 2.0 0.00 0.00 0.00 89 1025.7
20210120060800 59 51 2.0 2.0 0.00 0.00 0.00 89 1025.7
20210120060707 59 51 1.0 2.0 0.00 0.00 0.00 89 1025.7
20210120060559 59 51 1.0 2.0 0.00 0.00 0.00 88 1025.7
20210120060515 59 51 1.0 2.0 0.00 0.00 0.00 88 1025.8
20210120060403 58 51 1.0 1.0 0.00 0.00 0.00 88 1025.7
20210120060300 59 51 1.0 1.0 0.00 0.00 0.00 88 1025.8
20210120060202 59 51 1.0 1.0 0.00 0.00 0.00 88 1025.7
20210120060105 59 51 1.0 2.0 0.00 0.00 0.00 88 1025.7
20210120060000 59 51 1.0 2.0 0.00 0.00 0.00 88 1025.8
20210120055901 59 51 1.0 2.0 0.00 0.00 0.00 88 1025.7
20210120055759 59 51 1.0 2.0 0.00 0.00 0.00 88 1025.7
20210120055659 59 51 1.0 2.0 0.00 0.00 0.00 88 1025.8
20210120055602 59 51 1.0 2.0 0.00 0.00 0.00 88 1025.8
20210120055510 59 51 1.0 2.0 0.00 0.00 0.00 88 1025.9
20210120055400 59 51 1.0 2.0 0.00 0.00 0.00 87 1025.9
20210120055300 59 51 1.0 2.0 0.00 0.00 0.00 87 1025.8
20210120055159 59 51 1.0 2.0 0.00 0.00 0.00 87 1025.9
20210120055106 59 51 1.0 2.0 0.00 0.00 0.00 86 1025.9
20210120055001 59 51 1.0 3.0 0.00 0.00 0.00 86 1025.8
20210120054901 60 51 1.0 3.0 0.00 0.00 0.00 86 1025.8
20210120054802 60 51 1.0 3.0 0.00 0.00 0.00 86 1025.7
20210120054700 60 51 1.0 3.0 0.00 0.00 0.00 86 1025.7
20210120054605 60 51 1.0 3.0 0.00 0.00 0.00 86 1025.6
20210120054500 60 51 1.0 3.0 0.00 0.00 0.00 86 1025.5
20210120054401 60 51 1.0 3.0 0.00 0.00 0.00 86 1025.5
20210120054259 60 51 1.0 3.0 0.00 0.00 0.00 86 1025.5
20210120054203 60 51 2.0 3.0 0.00 0.00 0.00 87 1025.5
20210120054058 60 51 2.0 3.0 0.00 0.00 0.00 87 1025.6
20210120053958 60 51 2.0 3.0 0.00 0.00 0.00 87 1025.6
20210120053906 60 51 2.0 3.0 0.00 0.00 0.00 87 1025.6
20210120053800 60 51 2.0 3.0 0.00 0.00 0.00 87 1025.6
20210120053701 60 51 2.0 3.0 0.00 0.00 0.00 86 1025.6
20210120053602 60 51 2.0 3.0 0.00 0.00 0.00 86 1025.4
20210120053458 60 51 2.0 3.0 0.00 0.00 0.00 86 1025.5
20210120053358 60 51 2.0 3.0 0.00 0.00 0.00 86 1025.4
20210120053300 60 51 2.0 3.0 0.00 0.00 0.00 86 1025.5
20210120053201 60 51 1.0 2.0 0.00 0.00 0.00 86 1025.5
20210120053059 60 51 0.0 0.0 0.00 0.00 0.00 86 1025.5
20210120053004 60 51 0.0 0.0 0.00 0.00 0.00 86 1025.7
20210120052858 60 51 0.0 0.0 0.00 0.00 0.00 86 1025.7
20210120052758 60 51 0.0 0.0 0.00 0.00 0.00 86 1025.7
20210120052700 60 51 0.0 0.0 0.00 0.00 0.00 86 1025.9
20210120052559 60 51 0.0 0.0 0.00 0.00 0.00 86 1025.9
20210120052516 60 51 0.0 0.0 0.00 0.00 0.00 86 1025.9
20210120052359 60 51 0.0 0.0 0.00 0.00 0.00 86 1026.0
20210120052258 60 51 0.0 0.0 0.00 0.00 0.00 86 1025.9
20210120052200 60 51 0.0 0.0 0.00 0.00 0.00 85 1025.8
20210120052058 60 51 0.0 0.0 0.00 0.00 0.00 86 1025.9
20210120051959 60 51 0.0 0.0 0.00 0.00 0.00 86 1025.9
20210120051858 60 51 0.0 0.0 0.00 0.00 0.00 86 1025.9
20210120051759 60 51 0.0 1.0 0.00 0.00 0.00 86 1026.0
20210120051700 60 51 0.0 1.0 0.00 0.00 0.00 86 1026.0
20210120051558 60 51 0.0 2.0 0.00 0.00 0.00 86 1026.1
20210120051500 60 51 0.0 3.0 0.00 0.00 0.00 86 1026.0
20210120051401 60 51 0.0 3.0 0.00 0.00 0.00 86 1026.0
20210120051258 60 51 0.0 3.0 0.00 0.00 0.00 86 1026.0
20210120051159 60 51 0.0 3.0 0.00 0.00 0.00 85 1026.0
20210120051101 60 51 0.0 3.0 0.00 0.00 0.00 85 1026.0
20210120050959 60 51 0.0 3.0 0.00 0.00 0.00 85 1025.9
20210120050859 61 51 0.0 3.0 0.00 0.00 0.00 85 1025.9
20210120050800 61 51 1.0 3.0 0.00 0.00 0.00 85 1025.8
20210120050700 61 51 1.0 3.0 0.00 0.00 0.00 86 1025.7
20210120050602 61 51 2.0 3.0 0.00 0.00 0.00 86 1025.7
20210120050504 60 51 2.0 3.0 0.00 0.00 0.00 86 1025.6
20210120050405 60 51 2.0 3.0 0.00 0.00 0.00 86 1025.6
20210120050259 60 51 2.0 3.0 0.00 0.00 0.00 86 1025.6
20210120050158 60 51 2.0 3.0 0.00 0.00 0.00 86 1025.5
20210120050104 60 51 2.0 3.0 0.00 0.00 0.00 86 1025.5
20210120045958 60 51 2.0 3.0 0.00 0.00 0.00 85 1025.4
20210120045858 60 51 2.0 3.0 0.00 0.00 0.00 85 1025.4
20210120045759 60 51 2.0 3.0 0.00 0.00 0.00 85 1025.5
20210120045659 60 51 2.0 3.0 0.00 0.00 0.00 85 1025.4
20210120045559 61 51 2.0 4.0 0.00 0.00 0.00 85 1025.3
20210120045458 61 51 2.0 4.0 0.00 0.00 0.00 84 1025.4
20210120045400 61 51 2.0 4.0 0.00 0.00 0.00 84 1025.5
20210120045258 61 51 2.0 4.0 0.00 0.00 0.00 84 1025.4
20210120045158 61 51 2.0 4.0 0.00 0.00 0.00 84 1025.3
20210120045101 61 51 2.0 4.0 0.00 0.00 0.00 84 1025.3
20210120045001 61 51 2.0 4.0 0.00 0.00 0.00 84 1025.3
20210120044859 61 51 2.0 4.0 0.00 0.00 0.00 84 1025.4
20210120044758 61 51 2.0 4.0 0.00 0.00 0.00 84 1025.4
20210120044703 61 51 2.0 4.0 0.00 0.00 0.00 85 1025.4
20210120044557 61 30 2.0 3.0 0.00 0.00 0.00 84 1025.4
20210120044458 61 30 2.0 3.0 0.00 0.00 0.00 84 1025.5
20210120044359 61 30 2.0 3.0 0.00 0.00 0.00 85 1025.4
20210120044259 61 30 2.0 3.0 0.00 0.00 0.00 84 1025.4
20210120044157 61 30 2.0 2.0 0.00 0.00 0.00 84 1025.4
20210120044058 61 30 2.0 2.0 0.00 0.00 0.00 84 1025.5
20210120044010 61 30 2.0 2.0 0.00 0.00 0.00 84 1025.6
20210120043858 61 30 1.0 2.0 0.00 0.00 0.00 85 1025.5
20210120043758 61 30 1.0 2.0 0.00 0.00 0.00 85 1025.5
20210120043659 61 30 1.0 2.0 0.00 0.00 0.00 84 1025.5
20210120043558 61 30 1.0 3.0 0.00 0.00 0.00 84 1025.5
20210120043511 61 30 1.0 4.0 0.00 0.00 0.00 84 1025.5
20210120043359 61 30 1.0 4.0 0.00 0.00 0.00 84 1025.6
20210120043305 61 30 1.0 4.0 0.00 0.00 0.00 83 1025.5
20210120043157 61 30 1.0 4.0 0.00 0.00 0.00 83 1025.5
20210120043059 61 30 1.0 4.0 0.00 0.00 0.00 84 1025.5
20210120043001 61 30 1.0 4.0 0.00 0.00 0.00 84 1025.6
20210120042858 61 30 1.0 4.0 0.00 0.00 0.00 84 1025.5
20210120042800 61 30 2.0 4.0 0.00 0.00 0.00 83 1025.5
20210120042657 62 30 3.0 4.0 0.00 0.00 0.00 83 1025.4
20210120042600 62 30 3.0 4.0 0.00 0.00 0.00 83 1025.4
20210120042458 62 27 3.0 4.0 0.00 0.00 0.00 83 1025.4
20210120042357 62 10 2.0 3.0 0.00 0.00 0.00 84 1025.4
20210120042306 62 0 2.0 3.0 0.00 0.00 0.00 84 1025.3
20210120042200 62 0 2.0 3.0 0.00 0.00 0.00 84 1025.4
20210120042057 62 0 2.0 3.0 0.00 0.00 0.00 84 1025.4
20210120042000 62 0 2.0 3.0 0.00 0.00 0.00 84 1025.4
20210120041900 61 0 2.0 3.0 0.00 0.00 0.00 84 1025.4
20210120041757 61 0 1.0 3.0 0.00 0.00 0.00 84 1025.3
20210120041657 61 0 2.0 5.0 0.00 0.00 0.00 84 1025.4
20210120041602 61 0 2.0 5.0 0.00 0.00 0.00 84 1025.4
20210120041457 61 0 2.0 5.0 0.00 0.00 0.00 84 1025.5
20210120041359 61 326 2.0 5.0 0.00 0.00 0.00 84 1025.5
20210120041258 61 326 2.0 5.0 0.00 0.00 0.00 84 1025.6
20210120041158 61 326 2.0 5.0 0.00 0.00 0.00 84 1025.7
20210120041057 61 326 2.0 5.0 0.00 0.00 0.00 84 1025.8
20210120040957 61 326 2.0 5.0 0.00 0.00 0.00 84 1025.8
20210120040903 61 326 3.0 5.0 0.00 0.00 0.00 84 1025.7
20210120040759 61 331 4.0 5.0 0.00 0.00 0.00 85 1025.7
20210120040659 61 312 4.0 5.0 0.00 0.00 0.00 85 1025.7
20210120040559 61 344 3.0 5.0 0.00 0.00 0.00 85 1025.6
20210120040501 61 324 3.0 5.0 0.00 0.00 0.00 84 1025.6
20210120040357 61 305 2.0 4.0 0.00 0.00 0.00 84 1025.6
20210120040256 61 305 1.0 4.0 0.00 0.00 0.00 83 1025.6
20210120040201 61 305 1.0 5.0 0.00 0.00 0.00 83 1025.5
20210120040104 61 305 1.0 5.0 0.00 0.00 0.00 83 1025.6
20210120035957 61 305 1.0 5.0 0.00 0.00 0.00 83 1025.5
20210120035900 61 305 1.0 5.0 0.00 0.00 0.00 83 1025.5
20210120035756 61 305 2.0 5.0 0.00 0.00 0.00 84 1025.5
20210120035656 61 305 2.0 5.0 0.00 0.00 0.00 84 1025.4
20210120035557 61 303 3.0 5.0 0.00 0.00 0.00 84 1025.5
20210120035456 61 302 4.0 5.0 0.00 0.00 0.00 84 1025.4
20210120035402 61 316 4.0 5.0 0.00 0.00 0.00 84 1025.4
20210120035258 61 323 4.0 5.0 0.00 0.00 0.00 84 1025.3
20210120035200 61 320 4.0 5.0 0.00 0.00 0.00 83 1025.2
20210120035058 61 319 2.0 4.0 0.00 0.00 0.00 83 1025.1
20210120034957 61 327 2.0 4.0 0.00 0.00 0.00 83 1025.0
20210120034856 61 331 2.0 4.0 0.00 0.00 0.00 83 1025.0
20210120034757 61 338 2.0 4.0 0.00 0.00 0.00 83 1025.0
20210120034700 62 147 2.0 2.0 0.00 0.00 0.00 82 1024.9
20210120034557 62 154 1.0 3.0 0.00 0.00 0.00 83 1024.9
20210120034457 62 157 0.0 4.0 0.00 0.00 0.00 83 1024.9
20210120034359 62 157 0.0 4.0 0.00 0.00 0.00 83 1025.0
20210120034258 62 157 0.0 4.0 0.00 0.00 0.00 82 1024.9
20210120034200 62 157 0.0 4.0 0.00 0.00 0.00 82 1025.0
20210120034101 62 157 1.0 4.0 0.00 0.00 0.00 82 1024.9
20210120033956 62 157 1.0 4.0 0.00 0.00 0.00 82 1024.9
20210120033905 62 152 1.0 4.0 0.00 0.00 0.00 82 1024.9
20210120033800 62 152 2.0 4.0 0.00 0.00 0.00 82 1025.0
20210120033656 62 138 2.0 4.0 0.00 0.00 0.00 82 1024.9
20210120033600 62 137 2.0 4.0 0.00 0.00 0.00 82 1024.9
20210120033456 62 142 2.0 4.0 0.00 0.00 0.00 82 1024.9
20210120033358 62 154 2.0 4.0 0.00 0.00 0.00 82 1024.9
20210120033257 62 147 2.0 4.0 0.00 0.00 0.00 82 1025.0
20210120033155 62 138 1.0 4.0 0.00 0.00 0.00 82 1025.0
20210120033056 62 140 1.0 4.0 0.00 0.00 0.00 82 1025.1
20210120032959 62 137 2.0 4.0 0.00 0.00 0.00 81 1025.1
20210120032856 62 157 2.0 4.0 0.00 0.00 0.00 81 1025.1
20210120032757 62 134 2.0 4.0 0.00 0.00 0.00 81 1025.1
20210120032701 62 125 2.0 4.0 0.00 0.00 0.00 81 1025.1
20210120032556 62 164 2.0 4.0 0.00 0.00 0.00 81 1025.1
20210120032457 62 66 2.0 4.0 0.00 0.00 0.00 81 1025.2
20210120032401 62 161 2.0 4.0 0.00 0.00 0.00 81 1025.3
20210120032256 62 144 2.0 4.0 0.00 0.00 0.00 81 1025.2
20210120032156 62 148 2.0 4.0 0.00 0.00 0.00 81 1025.3
20210120032057 62 164 1.0 4.0 0.00 0.00 0.00 81 1025.2
20210120031958 63 168 2.0 4.0 0.00 0.00 0.00 81 1025.1
20210120031857 63 138 2.0 4.0 0.00 0.00 0.00 81 1025.2
20210120031755 63 171 2.0 4.0 0.00 0.00 0.00 81 1025.2
20210120031657 63 157 2.0 4.0 0.00 0.00 0.00 81 1025.1
20210120031556 63 134 2.0 4.0 0.00 0.00 0.00 81 1025.2
20210120031455 63 155 2.0 4.0 0.00 0.00 0.00 81 1025.2
20210120031356 63 179 2.0 4.0 0.00 0.00 0.00 81 1025.2
20210120031301 63 123 2.0 4.0 0.00 0.00 0.00 81 1025.2
20210120031156 62 157 2.0 4.0 0.00 0.00 0.00 81 1025.2
20210120031055 62 188 2.0 4.0 0.00 0.00 0.00 81 1025.3
20210120030958 62 164 2.0 4.0 0.00 0.00 0.00 81 1025.2
20210120030858 62 157 2.0 4.0 0.00 0.00 0.00 81 1025.3
20210120030758 62 152 2.0 4.0 0.00 0.00 0.00 81 1025.3
20210120030656 62 133 2.0 4.0 0.00 0.00 0.00 81 1025.3
20210120030558 62 158 2.0 3.0 0.00 0.00 0.00 81 1025.2
20210120030455 62 159 2.0 3.0 0.00 0.00 0.00 81 1025.3
20210120030355 62 164 2.0 3.0 0.00 0.00 0.00 81 1025.3
20210120030255 62 154 2.0 3.0 0.00 0.00 0.00 81 1025.2
20210120030156 62 152 2.0 3.0 0.00 0.00 0.00 81 1025.3
20210120030057 62 103 2.0 3.0 0.00 0.00 0.00 81 1025.3
20210120025957 62 103 2.0 3.0 0.00 0.00 0.00 81 1025.3
20210120025856 62 103 2.0 3.0 0.00 0.00 0.00 81 1025.2
20210120025758 62 103 2.0 3.0 0.00 0.00 0.00 81 1025.2
20210120025657 62 133 2.0 3.0 0.00 0.00 0.00 81 1025.2
20210120025556 62 140 1.0 3.0 0.00 0.00 0.00 81 1025.2
20210120025457 62 138 1.0 3.0 0.00 0.00 0.00 81 1025.2
20210120025355 62 149 1.0 3.0 0.00 0.00 0.00 81 1025.2
20210120025256 62 151 1.0 3.0 0.00 0.00 0.00 81 1025.2
20210120025201 62 135 2.0 3.0 0.00 0.00 0.00 81 1025.1
20210120025055 62 127 2.0 3.0 0.00 0.00 0.00 81 1025.2
20210120024954 62 172 2.0 3.0 0.00 0.00 0.00 81 1025.2
20210120024902 62 145 1.0 3.0 0.00 0.00 0.00 80 1025.2
20210120024755 63 151 1.0 3.0 0.00 0.00 0.00 80 1025.2
20210120024658 63 147 2.0 3.0 0.00 0.00 0.00 80 1025.2
20210120024556 63 130 1.0 3.0 0.00 0.00 0.00 80 1025.2
20210120024510 63 152 1.0 3.0 0.00 0.00 0.00 80 1025.1
20210120024354 63 120 2.0 4.0 0.00 0.00 0.00 80 1025.1
20210120024304 63 130 1.0 4.0 0.00 0.00 0.00 80 1025.1
20210120024155 63 124 1.0 4.0 0.00 0.00 0.00 80 1025.0
20210120024105 63 124 2.0 4.0 0.00 0.00 0.00 80 1025.1
20210120023955 63 148 2.0 4.0 0.00 0.00 0.00 80 1025.1
20210120023857 63 148 2.0 4.0 0.00 0.00 0.00 79 1025.1
20210120023759 63 154 2.0 4.0 0.00 0.00 0.00 79 1025.2
20210120023655 63 149 2.0 4.0 0.00 0.00 0.00 79 1025.2
20210120023559 63 145 2.0 4.0 0.00 0.00 0.00 79 1025.1
20210120023457 63 133 2.0 4.0 0.00 0.00 0.00 78 1025.1
20210120023354 63 131 1.0 4.0 0.00 0.00 0.00 78 1025.2
20210120023254 64 138 2.0 4.0 0.00 0.00 0.00 78 1025.2
20210120023155 64 118 2.0 4.0 0.00 0.00 0.00 78 1025.1
20210120023101 64 118 2.0 4.0 0.00 0.00 0.00 78 1025.2
20210120022956 64 118 2.0 4.0 0.00 0.00 0.00 78 1025.1
20210120022856 64 121 3.0 4.0 0.00 0.00 0.00 78 1025.0
20210120022756 64 110 3.0 4.0 0.00 0.00 0.00 78 1025.0
20210120022654 64 102 3.0 4.0 0.00 0.00 0.00 78 1025.0
20210120022555 64 116 3.0 4.0 0.00 0.00 0.00 78 1024.9
20210120022455 64 114 3.0 4.0 0.00 0.00 0.00 78 1024.9
20210120022354 64 118 2.0 4.0 0.00 0.00 0.00 78 1024.9
20210120022255 64 109 2.0 5.0 0.00 0.00 0.00 78 1024.9
20210120022156 64 123 2.0 6.0 0.00 0.00 0.00 78 1024.8
20210120022054 64 109 2.0 6.0 0.00 0.00 0.00 78 1024.9
20210120022000 64 137 2.0 6.0 0.00 0.00 0.00 78 1024.7
20210120021901 64 116 2.0 6.0 0.00 0.00 0.00 78 1024.8
20210120021756 64 130 2.0 6.0 0.00 0.00 0.00 77 1024.7
20210120021656 64 120 3.0 6.0 0.00 0.00 0.00 77 1024.7
20210120021555 64 116 3.0 6.0 0.00 0.00 0.00 77 1024.8
20210120021454 64 138 3.0 6.0 0.00 0.00 0.00 77 1024.8
20210120021359 64 120 4.0 6.0 0.00 0.00 0.00 77 1024.7
20210120021254 64 121 4.0 6.0 0.00 0.00 0.00 77 1024.8
20210120021154 64 127 4.0 6.0 0.00 0.00 0.00 77 1024.8
20210120021055 64 114 5.0 6.0 0.00 0.00 0.00 77 1024.7
20210120020959 64 120 5.0 6.0 0.00 0.00 0.00 77 1024.7
20210120020855 64 121 4.0 6.0 0.00 0.00 0.00 77 1024.7
20210120020757 64 121 4.0 6.0 0.00 0.00 0.00 77 1024.7
20210120020655 64 107 4.0 5.0 0.00 0.00 0.00 77 1024.8
20210120020554 64 121 4.0 5.0 0.00 0.00 0.00 77 1024.8
20210120020456 64 124 3.0 6.0 0.00 0.00 0.00 77 1024.8
20210120020354 64 118 3.0 6.0 0.00 0.00 0.00 77 1024.7
20210120020259 64 116 3.0 6.0 0.00 0.00 0.00 77 1024.8
20210120020155 64 130 3.0 6.0 0.00 0.00 0.00 77 1024.8
20210120020104 64 103 3.0 6.0 0.00 0.00 0.00 76 1024.7
20210120015954 64 121 3.0 6.0 0.00 0.00 0.00 76 1024.7
20210120015858 64 123 4.0 6.0 0.00 0.00 0.00 76 1024.8
20210120015755 64 131 4.0 6.0 0.00 0.00 0.00 76 1024.7
20210120015655 65 116 4.0 6.0 0.00 0.00 0.00 76 1024.7
20210120015554 64 114 4.0 6.0 0.00 0.00 0.00 76 1024.7
20210120015455 65 124 4.0 6.0 0.00 0.00 0.00 76 1024.7
20210120015358 65 121 4.0 6.0 0.00 0.00 0.00 76 1024.6
20210120015254 65 118 4.0 6.0 0.00 0.00 0.00 76 1024.6
20210120015153 65 90 4.0 6.0 0.00 0.00 0.00 75 1024.6
20210120015055 65 113 4.0 5.0 0.00 0.00 0.00 75 1024.6
20210120014955 65 109 4.0 5.0 0.00 0.00 0.00 75 1024.5
20210120014857 65 104 4.0 5.0 0.00 0.00 0.00 75 1024.6
20210120014754 65 102 3.0 5.0 0.00 0.00 0.00 75 1024.6
20210120014655 65 107 3.0 5.0 0.00 0.00 0.00 75 1024.5
20210120014555 65 92 3.0 5.0 0.00 0.00 0.00 75 1024.5
20210120014457 65 94 3.0 5.0 0.00 0.00 0.00 75 1024.5
20210120014358 65 100 3.0 5.0 0.00 0.00 0.00 75 1024.5
20210120014254 65 117 3.0 5.0 0.00 0.00 0.00 75 1024.5
20210120014201 65 116 4.0 5.0 0.00 0.00 0.00 75 1024.5
20210120014055 65 111 4.0 5.0 0.00 0.00 0.00 75 1024.4
20210120013955 65 97 4.0 5.0 0.00 0.00 0.00 75 1024.5
20210120013854 65 116 4.0 5.0 0.00 0.00 0.00 74 1024.3
20210120013753 65 113 4.0 5.0 0.00 0.00 0.00 74 1024.4
20210120013653 65 104 4.0 5.0 0.00 0.00 0.00 74 1024.3
20210120013553 65 127 4.0 5.0 0.00 0.00 0.00 74 1024.2
20210120013453 65 117 3.0 5.0 0.00 0.00 0.00 74 1024.2
20210120013353 65 114 3.0 5.0 0.00 0.00 0.00 74 1024.2
20210120013255 65 118 3.0 5.0 0.00 0.00 0.00 74 1024.2
20210120013203 65 111 3.0 5.0 0.00 0.00 0.00 73 1024.2
20210120013054 65 103 4.0 6.0 0.00 0.00 0.00 73 1024.2
20210120012958 66 130 4.0 6.0 0.00 0.00 0.00 73 1024.3
20210120012856 66 130 4.0 6.0 0.00 0.00 0.00 73 1024.3
20210120012754 66 130 4.0 6.0 0.00 0.00 0.00 73 1024.2
20210120012654 66 130 4.0 6.0 0.00 0.00 0.00 73 1024.2
20210120012555 66 113 4.0 6.0 0.00 0.00 0.00 72 1024.2
20210120012453 66 102 4.0 6.0 0.00 0.00 0.00 72 1024.2
20210120012353 66 117 4.0 6.0 0.00 0.00 0.00 72 1024.2
20210120012254 66 94 4.0 6.0 0.00 0.00 0.00 72 1024.2
20210120012159 66 128 5.0 6.0 0.00 0.00 0.00 72 1024.1
20210120012058 66 106 5.0 6.0 0.00 0.00 0.00 72 1024.1
20210120011958 66 118 5.0 6.0 0.00 0.00 0.00 72 1024.1
20210120011854 66 99 4.0 5.0 0.00 0.00 0.00 71 1024.1
20210120011755 66 103 5.0 5.0 0.00 0.00 0.00 71 1024.0
20210120011654 67 92 4.0 5.0 0.00 0.00 0.00 71 1024.0
20210120011555 67 117 4.0 5.0 0.00 0.00 0.00 71 1024.0
20210120011454 67 104 4.0 6.0 0.00 0.00 0.00 71 1024.0
20210120011356 67 103 4.0 6.0 0.00 0.00 0.00 71 1023.9
20210120011253 67 104 4.0 6.0 0.00 0.00 0.00 71 1024.0
20210120011157 67 102 4.0 6.0 0.00 0.00 0.00 70 1024.0
20210120011055 67 109 4.0 6.0 0.00 0.00 0.00 70 1023.9
20210120010956 67 109 5.0 6.0 0.00 0.00 0.00 70 1023.9
20210120010854 67 127 5.0 7.0 0.00 0.00 0.00 70 1023.9
20210120010754 67 125 4.0 7.0 0.00 0.00 0.00 70 1023.8
20210120010653 67 123 5.0 7.0 0.00 0.00 0.00 69 1023.8
20210120010553 67 111 5.0 7.0 0.00 0.00 0.00 69 1023.8
20210120010455 67 103 5.0 7.0 0.00 0.00 0.00 69 1023.7
20210120010355 67 92 5.0 7.0 0.00 0.00 0.00 69 1023.7
20210120010255 67 114 5.0 7.0 0.00 0.00 0.00 69 1023.6
20210120010158 67 121 5.0 7.0 0.00 0.00 0.00 69 1023.6
20210120010111 67 100 5.0 7.0 0.00 0.00 0.00 68 1023.6
20210120005953 67 118 5.0 7.0 0.00 0.00 0.00 68 1023.7
20210120005854 67 110 5.0 7.0 0.00 0.00 0.00 68 1023.6
20210120005754 68 120 5.0 7.0 0.00 0.00 0.00 68 1023.6
20210120005653 68 111 5.0 7.0 0.00 0.00 0.00 67 1023.6
20210120005552 68 133 6.0 7.0 0.00 0.00 0.00 67 1023.6
20210120005453 68 135 6.0 7.0 0.00 0.00 0.00 67 1023.6
20210120005353 68 113 6.0 7.0 0.00 0.00 0.00 67 1023.4
20210120005255 68 124 4.0 6.0 0.00 0.00 0.00 67 1023.4
20210120005152 68 125 4.0 6.0 0.00 0.00 0.00 67 1023.4
20210120005101 68 96 4.0 6.0 0.00 0.00 0.00 66 1023.3
20210120004952 68 113 5.0 6.0 0.00 0.00 0.00 66 1023.3
20210120004853 68 93 5.0 6.0 0.00 0.00 0.00 66 1023.4
20210120004755 68 99 5.0 6.0 0.00 0.00 0.00 66 1023.3
20210120004656 68 90 4.0 6.0 0.00 0.00 0.00 66 1023.2
20210120004601 68 107 4.0 6.0 0.00 0.00 0.00 66 1023.3
20210120004510 68 109 4.0 6.0 0.00 0.00 0.00 65 1023.2
20210120004356 68 111 4.0 6.0 0.00 0.00 0.00 65 1023.3
20210120004302 68 110 4.0 6.0 0.00 0.00 0.00 65 1023.2
20210120004155 68 113 5.0 6.0 0.00 0.00 0.00 65 1023.2
20210120004057 68 109 4.0 6.0 0.00 0.00 0.00 65 1023.2
20210120003958 68 110 4.0 6.0 0.00 0.00 0.00 65 1023.1
20210120003858 68 104 3.0 5.0 0.00 0.00 0.00 65 1023.2
20210120003752 68 135 4.0 5.0 0.00 0.00 0.00 65 1023.2
20210120003653 68 104 3.0 5.0 0.00 0.00 0.00 65 1023.2
20210120003555 68 130 3.0 5.0 0.00 0.00 0.00 65 1023.2
20210120003454 68 102 4.0 5.0 0.00 0.00 0.00 65 1023.2
20210120003354 69 151 4.0 5.0 0.00 0.00 0.00 65 1023.2
20210120003252 69 117 3.0 5.0 0.00 0.00 0.00 65 1023.1
20210120003152 69 127 3.0 5.0 0.00 0.00 0.00 65 1023.2
20210120003056 69 118 3.0 5.0 0.00 0.00 0.00 65 1023.1
20210120002956 69 123 4.0 5.0 0.00 0.00 0.00 65 1023.1
20210120002852 69 100 4.0 5.0 0.00 0.00 0.00 65 1023.0
20210120002756 69 104 3.0 5.0 0.00 0.00 0.00 65 1023.0
20210120002653 69 102 4.0 5.0 0.00 0.00 0.00 65 1023.0
20210120002555 69 117 4.0 5.0 0.00 0.00 0.00 65 1023.1
20210120002453 68 118 4.0 5.0 0.00 0.00 0.00 65 1023.1
20210120002355 69 117 2.0 5.0 0.00 0.00 0.00 65 1023.1
20210120002258 69 117 2.0 5.0 0.00 0.00 0.00 65 1023.1
20210120002153 69 117 2.0 5.0 0.00 0.00 0.00 65 1023.1
20210120002056 69 118 2.0 5.0 0.00 0.00 0.00 64 1023.1
20210120001953 69 116 3.0 5.0 0.00 0.00 0.00 64 1023.2
20210120001852 69 110 4.0 5.0 0.00 0.00 0.00 65 1023.1
20210120001751 69 117 4.0 5.0 0.00 0.00 0.00 64 1023.1
20210120001653 69 117 3.0 5.0 0.00 0.00 0.00 65 1023.1
20210120001552 69 109 3.0 4.0 0.00 0.00 0.00 65 1023.2
20210120001454 69 121 2.0 4.0 0.00 0.00 0.00 65 1023.1
20210120001352 69 121 2.0 4.0 0.00 0.00 0.00 65 1023.2
20210120001257 69 125 2.0 4.0 0.00 0.00 0.00 64 1023.2
20210120001152 69 117 3.0 4.0 0.00 0.00 0.00 64 1023.1
20210120001054 69 125 3.0 4.0 0.00 0.00 0.00 64 1023.2
20210120000953 69 114 3.0 4.0 0.00 0.00 0.00 64 1023.0
20210120000854 69 121 3.0 4.0 0.00 0.00 0.00 64 1023.1
20210120000751 69 120 2.0 4.0 0.00 0.00 0.00 64 1023.1
20210120000653 69 117 2.0 4.0 0.00 0.00 0.00 64 1023.1
20210120000557 69 113 2.0 4.0 0.00 0.00 0.00 64 1023.1
20210120000455 69 137 2.0 4.0 0.00 0.00 0.00 64 1023.1
20210120000407 69 123 2.0 4.0 0.00 0.00 0.00 64 1023.2
20210120000256 69 135 2.0 4.0 0.00 0.00 0.00 64 1023.2
20210120000152 69 144 2.0 4.0 0.00 0.00 0.00 64 1023.1
20210120000051 69 78 2.0 4.0 0.00 0.00 0.00 64 1023.1
20210119235957 69 131 2.0 4.0 0.00 0.00 0.00 64 1023.1
20210119235938 69 137 2.0 4.0 0.00 0.00 0.00 63 1023.1
20210119235753 69 154 2.0 4.0 0.00 0.00 0.00 63 1023.1
20210119235651 69 138 2.0 4.0 0.00 0.00 0.00 64 1023.1
20210119235558 69 149 1.0 3.0 0.00 0.00 0.00 63 1023.1
20210119235452 69 151 2.0 4.0 0.00 0.00 0.00 63 1023.1
20210119235353 69 134 2.0 4.0 0.00 0.00 0.00 64 1023.1
20210119235253 69 134 2.0 4.0 0.00 0.00 0.00 63 1023.0
20210119235153 70 131 2.0 4.0 0.00 0.00 0.00 63 1023.0
20210119235051 70 135 2.0 4.0 0.00 0.00 0.00 63 1023.0
20210119234951 70 128 2.0 4.0 0.00 0.00 0.00 63 1023.0
20210119234903 70 145 2.0 4.0 0.00 0.00 0.00 63 1023.0
20210119234751 70 137 2.0 4.0 0.00 0.00 0.00 63 1023.0
20210119234651 70 140 2.0 4.0 0.00 0.00 0.00 63 1023.0
20210119234552 70 162 2.0 4.0 0.00 0.00 0.00 62 1023.0
20210119234457 70 110 1.0 4.0 0.00 0.00 0.00 63 1023.0
20210119234354 70 164 2.0 6.0 0.00 0.00 0.00 62 1022.9
20210119234251 70 166 2.0 6.0 0.00 0.00 0.00 62 1022.9
20210119234152 70 138 2.0 6.0 0.00 0.00 0.00 62 1023.0
20210119234054 70 97 2.0 6.0 0.00 0.00 0.00 62 1022.9
20210119233951 70 149 2.0 6.0 0.00 0.00 0.00 62 1023.0
20210119233854 71 117 2.0 6.0 0.00 0.00 0.00 62 1022.9
20210119233755 71 147 2.0 6.0 0.00 0.00 0.00 62 1022.9
20210119233651 71 157 2.0 6.0 0.00 0.00 0.00 62 1022.9
20210119233551 71 138 2.0 6.0 0.00 0.00 0.00 62 1022.9
20210119233453 71 148 2.0 6.0 0.00 0.00 0.00 62 1022.9
20210119233352 71 141 2.0 6.0 0.00 0.00 0.00 62 1022.8
20210119233252 71 147 2.0 6.0 0.00 0.00 0.00 61 1022.8
20210119233152 71 196 2.0 6.0 0.00 0.00 0.00 61 1022.8
20210119233107 71 176 2.0 6.0 0.00 0.00 0.00 61 1022.8
20210119232951 71 123 2.0 6.0 0.00 0.00 0.00 61 1022.7
20210119232852 71 162 1.0 6.0 0.00 0.00 0.00 61 1022.7
20210119232757 71 162 2.0 6.0 0.00 0.00 0.00 61 1022.7
20210119232650 71 120 2.0 6.0 0.00 0.00 0.00 61 1022.8
20210119232602 71 173 3.0 6.0 0.00 0.00 0.00 61 1022.7
20210119232451 72 169 2.0 6.0 0.00 0.00 0.00 61 1022.8
20210119232356 72 144 2.0 6.0 0.00 0.00 0.00 61 1022.7
20210119232251 72 117 3.0 6.0 0.00 0.00 0.00 60 1022.8
20210119232151 72 134 3.0 6.0 0.00 0.00 0.00 60 1022.8
20210119232052 72 118 4.0 6.0 0.00 0.00 0.00 60 1022.7
20210119231952 72 130 4.0 7.0 0.00 0.00 0.00 60 1022.8
20210119231855 72 144 4.0 7.0 0.00 0.00 0.00 60 1022.7
20210119231755 72 245 2.0 11.0 0.00 0.00 0.00 59 1022.7
20210119231650 72 178 3.0 11.0 0.00 0.00 0.00 59 1022.7
20210119231556 72 178 3.0 11.0 0.00 0.00 0.00 59 1022.8
20210119231450 72 178 3.0 11.0 0.00 0.00 0.00 59 1022.8
20210119231352 72 178 3.0 11.0 0.00 0.00 0.00 59 1022.8
20210119231251 72 169 3.0 11.0 0.00 0.00 0.00 59 1022.7
20210119231149 73 165 4.0 11.0 0.00 0.00 0.00 59 1022.8
20210119231051 73 219 4.0 11.0 0.00 0.00 0.00 59 1022.7
20210119230951 73 147 5.0 11.0 0.00 0.00 0.00 59 1022.7
20210119230853 73 223 5.0 11.0 0.00 0.00 0.00 59 1022.7
20210119230750 73 221 4.0 7.0 0.00 0.00 0.00 59 1022.6
20210119230652 73 162 4.0 7.0 0.00 0.00 0.00 59 1022.7
20210119230550 73 196 3.0 6.0 0.00 0.00 0.00 59 1022.7
20210119230451 73 180 3.0 6.0 0.00 0.00 0.00 59 1022.7
20210119230355 73 207 2.0 6.0 0.00 0.00 0.00 59 1022.7
20210119230252 73 168 2.0 6.0 0.00 0.00 0.00 59 1022.7
20210119230154 73 188 4.0 6.0 0.00 0.00 0.00 59 1022.7
20210119230051 73 166 4.0 6.0 0.00 0.00 0.00 59 1022.6
20210119225953 73 185 2.0 10.0 0.00 0.00 0.00 60 1022.6
20210119225851 73 282 3.0 10.0 0.00 0.00 0.00 59 1022.6
20210119225749 73 123 3.0 10.0 0.00 0.00 0.00 59 1022.6
20210119225656 73 145 3.0 10.0 0.00 0.00 0.00 59 1022.6
20210119225550 73 111 3.0 11.0 0.00 0.00 0.00 59 1022.6
20210119225449 73 125 3.0 12.0 0.00 0.00 0.00 59 1022.6
20210119225351 73 106 3.0 13.0 0.00 0.00 0.00 59 1022.6
20210119225251 73 121 2.0 13.0 0.00 0.00 0.00 59 1022.6
20210119225151 73 157 4.0 13.0 0.00 0.00 0.00 59 1022.6
20210119225055 73 165 6.0 13.0 0.00 0.00 0.00 59 1022.6
20210119225009 73 166 5.0 13.0 0.00 0.00 0.00 59 1022.6
20210119224855 73 142 4.0 13.0 0.00 0.00 0.00 59 1022.5
20210119224749 73 175 6.0 13.0 0.00 0.00 0.00 59 1022.5
20210119224652 73 245 7.0 13.0 0.00 0.00 0.00 59 1022.6
20210119224553 73 212 7.0 13.0 0.00 0.00 0.00 59 1022.6
20210119224449 73 207 6.0 13.0 0.00 0.00 0.00 60 1022.6
20210119224352 73 226 6.0 13.0 0.00 0.00 0.00 60 1022.6
20210119224254 74 195 6.0 13.0 0.00 0.00 0.00 60 1022.6
20210119224150 74 233 7.0 13.0 0.00 0.00 0.00 59 1022.6
20210119224053 74 228 8.0 13.0 0.00 0.00 0.00 59 1022.6
20210119223949 74 206 6.0 13.0 0.00 0.00 0.00 59 1022.5
20210119223857 74 192 5.0 13.0 0.00 0.00 0.00 59 1022.5
20210119223750 74 183 4.0 13.0 0.00 0.00 0.00 59 1022.5
20210119223655 74 209 6.0 13.0 0.00 0.00 0.00 59 1022.5
20210119223558 74 169 6.0 13.0 0.00 0.00 0.00 59 1022.5
20210119223451 74 230 6.0 13.0 0.00 0.00 0.00 59 1022.4
20210119223348 74 210 5.0 13.0 0.00 0.00 0.00 60 1022.5
20210119223251 74 125 4.0 12.0 0.00 0.00 0.00 60 1022.4
20210119223150 74 196 6.0 12.0 0.00 0.00 0.00 59 1022.4
20210119223110 74 144 8.0 12.0 0.00 0.00 0.00 59 1022.4
20210119222949 74 213 7.0 12.0 0.00 0.00 0.00 59 1022.4
20210119222850 74 193 6.0 12.0 0.00 0.00 0.00 59 1022.4
20210119222749 74 168 4.0 12.0 0.00 0.00 0.00 59 1022.5
20210119222652 74 172 2.0 12.0 0.00 0.00 0.00 59 1022.4
20210119222549 74 121 3.0 12.0 0.00 0.00 0.00 60 1022.4
20210119222450 74 142 3.0 12.0 0.00 0.00 0.00 59 1022.5
20210119222349 74 159 4.0 12.0 0.00 0.00 0.00 60 1022.5
20210119222250 74 171 5.0 12.0 0.00 0.00 0.00 59 1022.5
20210119222151 74 137 6.0 12.0 0.00 0.00 0.00 60 1022.5
20210119222050 74 209 7.0 12.0 0.00 0.00 0.00 60 1022.5
20210119221949 74 190 8.0 12.0 0.00 0.00 0.00 59 1022.4
20210119221851 74 261 7.0 12.0 0.00 0.00 0.00 59 1022.5
20210119221750 74 213 6.0 11.0 0.00 0.00 0.00 59 1022.5
20210119221649 74 168 5.0 11.0 0.00 0.00 0.00 59 1022.5
20210119221602 74 258 4.0 10.0 0.00 0.00 0.00 59 1022.3
20210119221453 74 203 4.0 13.0 0.00 0.00 0.00 60 1022.3
20210119221349 74 203 4.0 13.0 0.00 0.00 0.00 59 1022.3
20210119221248 74 165 4.0 13.0 0.00 0.00 0.00 59 1022.2
20210119221149 74 103 5.0 13.0 0.00 0.00 0.00 59 1022.2
20210119221051 74 176 6.0 13.0 0.00 0.00 0.00 59 1022.3
20210119220949 74 182 6.0 13.0 0.00 0.00 0.00 59 1022.2
20210119220848 74 189 6.0 13.0 0.00 0.00 0.00 59 1022.2
20210119220750 74 235 5.0 13.0 0.00 0.00 0.00 59 1022.2
20210119220649 74 193 7.0 13.0 0.00 0.00 0.00 59 1022.2
20210119220548 74 140 6.0 13.0 0.00 0.00 0.00 58 1022.1
20210119220449 75 28 5.0 11.0 0.00 0.00 0.00 58 1022.1
20210119220351 75 152 5.0 11.0 0.00 0.00 0.00 58 1022.1
20210119220252 75 159 6.0 11.0 0.00 0.00 0.00 58 1022.2
20210119220150 75 188 6.0 11.0 0.00 0.00 0.00 58 1022.0
20210119220053 75 158 6.0 10.0 0.00 0.00 0.00 58 1022.1
20210119215948 75 172 6.0 10.0 0.00 0.00 0.00 58 1022.0
20210119215852 75 197 6.0 10.0 0.00 0.00 0.00 58 1022.1
20210119215751 75 155 4.0 10.0 0.00 0.00 0.00 59 1022.0
20210119215650 75 93 3.0 10.0 0.00 0.00 0.00 59 1022.1
20210119215551 75 214 4.0 10.0 0.00 0.00 0.00 59 1022.0
20210119215449 75 217 5.0 10.0 0.00 0.00 0.00 59 1022.0
20210119215350 75 141 5.0 14.0 0.00 0.00 0.00 59 1022.0
20210119215248 75 124 5.0 14.0 0.00 0.00 0.00 58 1022.0
20210119215148 75 275 5.0 14.0 0.00 0.00 0.00 58 1022.0
20210119215050 75 100 4.0 14.0 0.00 0.00 0.00 58 1022.0
20210119214948 75 128 4.0 14.0 0.00 0.00 0.00 58 1021.9
20210119214850 75 85 4.0 14.0 0.00 0.00 0.00 58 1021.9
20210119214748 75 197 5.0 14.0 0.00 0.00 0.00 58 1021.9
20210119214651 75 212 6.0 14.0 0.00 0.00 0.00 58 1021.9
20210119214548 75 130 6.0 14.0 0.00 0.00 0.00 58 1021.8
20210119214448 75 219 4.0 14.0 0.00 0.00 0.00 58 1021.9
20210119214349 75 193 5.0 12.0 0.00 0.00 0.00 59 1021.9
20210119214247 75 145 7.0 12.0 0.00 0.00 0.00 58 1021.8
20210119214149 75 100 6.0 12.0 0.00 0.00 0.00 58 1021.8
20210119214049 75 128 6.0 12.0 0.00 0.00 0.00 58 1021.8
20210119213950 76 166 6.0 12.0 0.00 0.00 0.00 57 1021.8
20210119213849 76 173 4.0 11.0 0.00 0.00 0.00 58 1021.9
20210119213748 75 103 3.0 12.0 0.00 0.00 0.00 58 1021.8
20210119213650 75 118 4.0 12.0 0.00 0.00 0.00 58 1021.7
20210119213549 75 171 4.0 12.0 0.00 0.00 0.00 58 1021.8
20210119213447 75 118 5.0 12.0 0.00 0.00 0.00 57 1021.7
20210119213348 75 196 6.0 12.0 0.00 0.00 0.00 58 1021.7
20210119213258 75 227 4.0 12.0 0.00 0.00 0.00 58 1021.6
20210119213150 75 193 5.0 12.0 0.00 0.00 0.00 58 1021.7
20210119213053 75 155 6.0 12.0 0.00 0.00 0.00 58 1021.7
20210119212952 75 214 6.0 13.0 0.00 0.00 0.00 58 1021.7
20210119212856 75 238 6.0 13.0 0.00 0.00 0.00 57 1021.7
20210119212748 75 204 5.0 15.0 0.00 0.00 0.00 57 1021.7
20210119212650 75 196 5.0 15.0 0.00 0.00 0.00 57 1021.6
20210119212550 75 158 6.0 15.0 0.00 0.00 0.00 57 1021.7
20210119212448 75 200 7.0 15.0 0.00 0.00 0.00 57 1021.6
20210119212352 75 261 7.0 15.0 0.00 0.00 0.00 57 1021.6
20210119212248 75 172 4.0 15.0 0.00 0.00 0.00 57 1021.5
20210119212152 75 142 5.0 15.0 0.00 0.00 0.00 57 1021.5
20210119212049 75 93 6.0 17.0 0.00 0.00 0.00 57 1021.5
20210119211948 75 102 8.0 17.0 0.00 0.00 0.00 58 1021.5
20210119211849 75 61 8.0 18.0 0.00 0.00 0.00 57 1021.5
20210119211748 75 117 6.0 18.0 0.00 0.00 0.00 58 1021.5
20210119211648 75 123 6.0 18.0 0.00 0.00 0.00 58 1021.4
20210119211549 75 114 5.0 18.0 0.00 0.00 0.00 58 1021.4
20210119211447 75 100 9.0 18.0 0.00 0.00 0.00 58 1021.4
20210119211348 75 127 11.0 18.0 0.00 0.00 0.00 57 1021.4
20210119211253 75 140 10.0 18.0 0.00 0.00 0.00 57 1021.4
20210119211147 75 107 8.0 18.0 0.00 0.00 0.00 58 1021.4
20210119211047 75 199 11.0 18.0 0.00 0.00 0.00 58 1021.3
20210119210948 75 131 11.0 18.0 0.00 0.00 0.00 57 1021.3
20210119210848 75 113 10.0 16.0 0.00 0.00 0.00 58 1021.2
20210119210749 75 125 9.0 15.0 0.00 0.00 0.00 57 1021.4
20210119210648 76 100 7.0 15.0 0.00 0.00 0.00 57 1021.3
20210119210550 76 117 7.0 15.0 0.00 0.00 0.00 57 1021.3
20210119210451 76 154 7.0 15.0 0.00 0.00 0.00 56 1021.3
20210119210347 76 102 6.0 15.0 0.00 0.00 0.00 57 1021.3
20210119210247 76 196 7.0 15.0 0.00 0.00 0.00 57 1021.3
20210119210147 76 244 8.0 15.0 0.00 0.00 0.00 57 1021.3
20210119210048 76 186 7.0 15.0 0.00 0.00 0.00 57 1021.3
20210119205952 76 175 5.0 14.0 0.00 0.00 0.00 57 1021.3
20210119205848 76 299 6.0 15.0 0.00 0.00 0.00 57 1021.3
20210119205752 76 90 6.0 15.0 0.00 0.00 0.00 57 1021.4
20210119205648 76 127 6.0 15.0 0.00 0.00 0.00 57 1021.4
20210119205555 76 137 7.0 15.0 0.00 0.00 0.00 57 1021.3
20210119205450 76 171 8.0 15.0 0.00 0.00 0.00 57 1021.3
20210119205347 76 65 7.0 15.0 0.00 0.00 0.00 57 1021.2
20210119205250 76 186 5.0 15.0 0.00 0.00 0.00 57 1021.3
20210119205149 76 152 7.0 15.0 0.00 0.00 0.00 56 1021.3
20210119205048 76 162 9.0 15.0 0.00 0.00 0.00 57 1021.4
20210119204947 76 128 9.0 15.0 0.00 0.00 0.00 57 1021.4
20210119204848 76 183 9.0 15.0 0.00 0.00 0.00 57 1021.3
20210119204749 76 145 8.0 15.0 0.00 0.00 0.00 57 1021.3
20210119204650 75 134 9.0 15.0 0.00 0.00 0.00 57 1021.3
20210119204547 75 144 9.0 16.0 0.00 0.00 0.00 58 1021.2
20210119204448 75 93 8.0 16.0 0.00 0.00 0.00 58 1021.2
20210119204347 75 182 8.0 16.0 0.00 0.00 0.00 58 1021.3
20210119204255 75 111 7.0 16.0 0.00 0.00 0.00 57 1021.3
20210119204146 75 124 8.0 16.0 0.00 0.00 0.00 57 1021.3
20210119204046 75 75 8.0 16.0 0.00 0.00 0.00 57 1021.3
20210119203941 75 127 9.0 16.0 0.00 0.00 0.00 57 1021.2
20210119203850 75 75 9.0 16.0 0.00 0.00 0.00 57 1021.2
20210119203738 75 193 8.0 16.0 0.00 0.00 0.00 56 1021.2
20210119203638 75 185 8.0 16.0 0.00 0.00 0.00 57 1021.2
20210119203540 75 145 8.0 16.0 0.00 0.00 0.00 57 1021.2
20210119203434 75 166 7.0 16.0 0.00 0.00 0.00 56 1021.2
20210119203334 75 161 6.0 16.0 0.00 0.00 0.00 57 1021.3
20210119203232 75 151 8.0 16.0 0.00 0.00 0.00 56 1021.2
20210119203131 75 134 8.0 16.0 0.00 0.00 0.00 56 1021.2
20210119203037 75 185 6.0 15.0 0.00 0.00 0.00 57 1021.2
20210119202927 76 162 7.0 15.0 0.00 0.00 0.00 56 1021.3
20210119202829 75 76 5.0 15.0 0.00 0.00 0.00 56 1021.2
20210119202732 75 94 5.0 15.0 0.00 0.00 0.00 57 1021.2
20210119202622 75 189 7.0 15.0 0.00 0.00 0.00 57 1021.2
20210119202537 75 121 7.0 15.0 0.00 0.00 0.00 57 1021.2
20210119202419 75 113 8.0 15.0 0.00 0.00 0.00 56 1021.2
20210119202318 75 151 9.0 15.0 0.00 0.00 0.00 56 1021.2
20210119202217 75 86 8.0 13.0 0.00 0.00 0.00 55 1021.3
20210119202117 76 106 7.0 13.0 0.00 0.00 0.00 55 1021.3
20210119202031 76 128 8.0 16.0 0.00 0.00 0.00 55 1021.3
20210119201917 76 134 8.0 16.0 0.00 0.00 0.00 55 1021.2
20210119201821 76 117 7.0 16.0 0.00 0.00 0.00 54 1021.3
20210119201717 76 109 7.0 16.0 0.00 0.00 0.00 54 1021.1
20210119201617 76 144 8.0 16.0 0.00 0.00 0.00 54 1021.2
20210119201519 76 58 7.0 16.0 0.00 0.00 0.00 54 1021.2
20210119201413 77 120 6.0 16.0 0.00 0.00 0.00 54 1021.2
20210119201311 76 173 8.0 16.0 0.00 0.00 0.00 54 1021.2
20210119201112 76 202 9.0 16.0 0.00 0.00 0.00 54 1021.2
20210119201021 77 200 7.0 16.0 0.00 0.00 0.00 53 1021.3
20210119200905 77 238 6.0 16.0 0.00 0.00 0.00 53 1021.3
20210119200806 77 168 5.0 16.0 0.00 0.00 0.00 54 1021.2
20210119200703 77 157 5.0 16.0 0.00 0.00 0.00 53 1021.3
20210119200601 77 128 5.0 16.0 0.00 0.00 0.00 54 1021.2
20210119200500 77 87 4.0 16.0 0.00 0.00 0.00 54 1021.3
20210119200052 77 165 5.0 13.0 0.00 0.00 0.00 54 1021.3
20210119195948 76 133 5.0 13.0 0.00 0.00 0.00 54 1021.3
20210119195847 76 196 6.0 13.0 0.00 0.00 0.00 54 1021.3
20210119195745 76 159 6.0 13.0 0.00 0.00 0.00 54 1021.2
20210119195647 76 6 7.0 13.0 0.00 0.00 0.00 54 1021.3
20210119195547 76 118 7.0 13.0 0.00 0.00 0.00 54 1021.2
20210119195446 76 188 6.0 13.0 0.00 0.00 0.00 54 1021.2
20210119195346 76 92 6.0 16.0 0.00 0.00 0.00 54 1021.2
20210119195247 76 164 7.0 16.0 0.00 0.00 0.00 54 1021.1
20210119195146 76 210 7.0 16.0 0.00 0.00 0.00 55 1021.2
20210119195046 76 203 5.0 16.0 0.00 0.00 0.00 54 1021.2
20210119194948 76 165 4.0 16.0 0.00 0.00 0.00 56 1021.2
20210119194847 76 204 5.0 16.0 0.00 0.00 0.00 55 1021.3
20210119194745 76 173 5.0 16.0 0.00 0.00 0.00 55 1021.2
20210119194647 76 104 7.0 16.0 0.00 0.00 0.00 55 1021.2
20210119194547 76 72 7.0 16.0 0.00 0.00 0.00 55 1021.2
20210119194447 76 148 7.0 16.0 0.00 0.00 0.00 55 1021.2
20210119194346 76 164 7.0 14.0 0.00 0.00 0.00 55 1021.2
20210119194247 76 166 7.0 13.0 0.00 0.00 0.00 54 1021.2
20210119194149 76 173 5.0 13.0 0.00 0.00 0.00 54 1021.1
20210119194046 76 78 4.0 14.0 0.00 0.00 0.00 55 1021.1
20210119193945 76 134 5.0 14.0 0.00 0.00 0.00 54 1021.1
20210119193848 76 138 6.0 14.0 0.00 0.00 0.00 55 1021.3
20210119193748 76 219 5.0 14.0 0.00 0.00 0.00 55 1021.2
20210119193647 76 116 6.0 14.0 0.00 0.00 0.00 56 1021.2
20210119193547 76 106 6.0 17.0 0.00 0.00 0.00 55 1021.2
20210119193445 76 169 7.0 17.0 0.00 0.00 0.00 55 1021.2
20210119193348 76 147 8.0 17.0 0.00 0.00 0.00 55 1021.3
20210119193247 76 142 8.0 17.0 0.00 0.00 0.00 55 1021.2
20210119193147 76 110 8.0 17.0 0.00 0.00 0.00 55 1021.3
20210119193046 76 155 6.0 17.0 0.00 0.00 0.00 55 1021.3
20210119192946 76 78 5.0 17.0 0.00 0.00 0.00 55 1021.3
20210119192852 76 207 6.0 17.0 0.00 0.00 0.00 55 1021.3
20210119192745 76 172 7.0 17.0 0.00 0.00 0.00 56 1021.2
20210119192645 76 140 10.0 17.0 0.00 0.00 0.00 56 1021.3
20210119192547 76 94 10.0 16.0 0.00 0.00 0.00 56 1021.2
20210119192446 76 106 8.0 15.0 0.00 0.00 0.00 55 1021.3
20210119192347 76 89 8.0 15.0 0.00 0.00 0.00 56 1021.4
20210119192245 76 148 6.0 15.0 0.00 0.00 0.00 56 1021.3
20210119192146 76 158 6.0 15.0 0.00 0.00 0.00 56 1021.3
20210119192046 76 110 7.0 15.0 0.00 0.00 0.00 55 1021.3
20210119191948 76 154 8.0 15.0 0.00 0.00 0.00 55 1021.4
20210119191847 76 161 9.0 15.0 0.00 0.00 0.00 55 1021.4
20210119191748 76 96 9.0 14.0 0.00 0.00 0.00 56 1021.4
20210119191649 76 178 8.0 14.0 0.00 0.00 0.00 56 1021.3
20210119191546 76 111 8.0 14.0 0.00 0.00 0.00 56 1021.4
20210119191445 76 93 8.0 14.0 0.00 0.00 0.00 56 1021.4
20210119191345 76 47 6.0 14.0 0.00 0.00 0.00 56 1021.4
20210119191246 76 134 7.0 14.0 0.00 0.00 0.00 56 1021.4
20210119191153 76 189 6.0 14.0 0.00 0.00 0.00 55 1021.4
20210119191046 76 11 5.0 14.0 0.00 0.00 0.00 55 1021.4
20210119190950 76 90 7.0 14.0 0.00 0.00 0.00 55 1021.4
20210119190846 76 166 8.0 14.0 0.00 0.00 0.00 55 1021.4
20210119190747 77 182 7.0 13.0 0.00 0.00 0.00 55 1021.4
20210119190645 77 145 6.0 13.0 0.00 0.00 0.00 56 1021.4
20210119190545 76 155 4.0 15.0 0.00 0.00 0.00 56 1021.5
20210119190445 76 159 3.0 15.0 0.00 0.00 0.00 58 1021.5
20210119190346 76 224 4.0 19.0 0.00 0.00 0.00 58 1021.5
20210119190245 75 164 6.0 19.0 0.00 0.00 0.00 58 1021.6
20210119190145 75 235 6.0 19.0 0.00 0.00 0.00 59 1021.6
20210119190056 75 110 6.0 19.0 0.00 0.00 0.00 59 1021.5
20210119185945 74 99 7.0 19.0 0.00 0.00 0.00 59 1021.6
20210119185851 74 158 8.0 19.0 0.00 0.00 0.00 58 1021.6
20210119185745 74 137 9.0 19.0 0.00 0.00 0.00 59 1021.6
20210119185646 74 166 8.0 19.0 0.00 0.00 0.00 59 1021.6
20210119185544 74 179 9.0 19.0 0.00 0.00 0.00 59 1021.7
20210119185444 74 210 10.0 19.0 0.00 0.00 0.00 59 1021.6
20210119185346 74 182 8.0 15.0 0.00 0.00 0.00 59 1021.7
20210119185249 74 176 6.0 15.0 0.00 0.00 0.00 60 1021.7
20210119185146 74 151 5.0 15.0 0.00 0.00 0.00 59 1021.7
20210119185044 74 233 7.0 15.0 0.00 0.00 0.00 59 1021.6
20210119184944 74 203 7.0 15.0 0.00 0.00 0.00 59 1021.6
20210119184923 75 178 7.0 16.0 0.00 0.00 0.00 60 1021.7
20210119184904 75 207 7.0 15.0 0.00 0.00 0.00 59 1021.7
20210119184839 75 127 9.0 15.0 0.00 0.00 0.00 59 1021.6
20210119184819 75 149 9.0 16.0 0.00 0.00 0.00 59 1021.6
20210119184449 75 152 6.0 16.0 0.00 0.00 0.00 59 1021.7
20210119184344 75 130 5.0 16.0 0.00 0.00 0.00 60 1021.8
20210119184247 75 121 5.0 16.0 0.00 0.00 0.00 61 1021.8
20210119184145 74 121 6.0 18.0 0.00 0.00 0.00 61 1021.8
20210119184049 74 238 6.0 18.0 0.00 0.00 0.00 61 1021.8
20210119183947 74 158 6.0 18.0 0.00 0.00 0.00 61 1021.8
20210119183846 74 195 9.0 18.0 0.00 0.00 0.00 61 1022.0
20210119183750 74 161 10.0 18.0 0.00 0.00 0.00 61 1021.9
20210119183645 74 185 6.0 18.0 0.00 0.00 0.00 60 1021.9
20210119183545 74 183 5.0 18.0 0.00 0.00 0.00 60 1022.0
20210119183448 75 157 6.0 18.0 0.00 0.00 0.00 60 1022.0
20210119183349 75 199 7.0 18.0 0.00 0.00 0.00 59 1022.0
20210119183246 75 203 6.0 18.0 0.00 0.00 0.00 59 1022.0
20210119183149 75 35 4.0 16.0 0.00 0.00 0.00 59 1022.0
20210119183043 75 227 4.0 16.0 0.00 0.00 0.00 60 1022.0
20210119182946 75 147 4.0 16.0 0.00 0.00 0.00 61 1021.9
20210119182846 75 135 5.0 16.0 0.00 0.00 0.00 61 1021.8
20210119182750 75 168 7.0 16.0 0.00 0.00 0.00 61 1021.8
20210119182650 75 168 8.0 16.0 0.00 0.00 0.00 61 1021.8
20210119182549 75 155 6.0 14.0 0.00 0.00 0.00 61 1021.8
20210119182444 75 96 4.0 12.0 0.00 0.00 0.00 62 1021.8
20210119182344 74 235 4.0 13.0 0.00 0.00 0.00 61 1021.8
20210119182247 74 149 5.0 14.0 0.00 0.00 0.00 62 1021.9
20210119182146 74 130 5.0 14.0 0.00 0.00 0.00 63 1021.9
20210119182046 74 216 7.0 14.0 0.00 0.00 0.00 63 1022.0
20210119181945 74 142 7.0 14.0 0.00 0.00 0.00 62 1022.0
20210119181847 74 149 8.0 14.0 0.00 0.00 0.00 62 1022.0
20210119181754 74 123 7.0 14.0 0.00 0.00 0.00 63 1022.1
20210119181646 74 116 6.0 14.0 0.00 0.00 0.00 63 1022.1
20210119181550 74 230 7.0 14.0 0.00 0.00 0.00 63 1022.2
20210119181445 74 162 9.0 14.0 0.00 0.00 0.00 63 1022.2
20210119181347 74 92 7.0 14.0 0.00 0.00 0.00 62 1022.1
20210119181244 74 162 7.0 14.0 0.00 0.00 0.00 63 1022.2
20210119181145 74 329 7.0 14.0 0.00 0.00 0.00 62 1022.2
20210119181043 74 80 7.0 14.0 0.00 0.00 0.00 62 1022.2
20210119180944 74 159 6.0 15.0 0.00 0.00 0.00 62 1022.2
20210119180845 74 85 5.0 15.0 0.00 0.00 0.00 62 1022.3
20210119180743 74 154 4.0 15.0 0.00 0.00 0.00 64 1022.2
20210119180648 74 124 6.0 15.0 0.00 0.00 0.00 63 1022.2
20210119180546 74 113 9.0 15.0 0.00 0.00 0.00 63 1022.2
20210119180444 74 128 9.0 15.0 0.00 0.00 0.00 63 1022.2
20210119180342 74 87 8.0 15.0 0.00 0.00 0.00 63 1022.2
20210119180242 74 138 6.0 15.0 0.00 0.00 0.00 63 1022.2
20210119180146 74 131 7.0 15.0 0.00 0.00 0.00 64 1022.3
20210119180047 74 165 8.0 15.0 0.00 0.00 0.00 64 1022.3
20210119175947 74 123 8.0 13.0 0.00 0.00 0.00 63 1022.4
20210119175848 74 124 6.0 13.0 0.00 0.00 0.00 63 1022.4
20210119175747 74 176 4.0 13.0 0.00 0.00 0.00 64 1022.4
20210119175643 74 135 4.0 13.0 0.00 0.00 0.00 64 1022.4
20210119175544 74 219 4.0 13.0 0.00 0.00 0.00 64 1022.5
20210119175444 73 3 4.0 13.0 0.00 0.00 0.00 65 1022.6
20210119175342 73 178 5.0 13.0 0.00 0.00 0.00 65 1022.6
20210119175242 73 245 8.0 15.0 0.00 0.00 0.00 65 1022.7
20210119175144 73 107 6.0 15.0 0.00 0.00 0.00 65 1022.8
20210119175042 73 107 4.0 15.0 0.00 0.00 0.00 66 1022.8
20210119174942 73 116 5.0 15.0 0.00 0.00 0.00 66 1022.8
20210119174842 72 162 5.0 15.0 0.00 0.00 0.00 67 1022.8
20210119174748 72 104 6.0 15.0 0.00 0.00 0.00 67 1022.9
20210119174642 72 117 7.0 15.0 0.00 0.00 0.00 67 1022.9
20210119174544 72 162 6.0 16.0 0.00 0.00 0.00 67 1023.0
20210119174445 72 161 6.0 16.0 0.00 0.00 0.00 67 1023.0
20210119174343 71 158 8.0 16.0 0.00 0.00 0.00 67 1023.1
20210119174243 72 334 8.0 16.0 0.00 0.00 0.00 67 1023.1
20210119174144 71 180 8.0 16.0 0.00 0.00 0.00 67 1023.0
20210119174044 71 226 8.0 16.0 0.00 0.00 0.00 67 1023.1
20210119173942 71 230 8.0 16.0 0.00 0.00 0.00 67 1023.1
20210119173842 71 210 8.0 16.0 0.00 0.00 0.00 67 1023.1
20210119173745 71 123 8.0 16.0 0.00 0.00 0.00 67 1023.1
20210119173650 71 148 8.0 16.0 0.00 0.00 0.00 67 1023.2
20210119173544 71 116 7.0 15.0 0.00 0.00 0.00 67 1023.1
20210119173443 71 192 7.0 15.0 0.00 0.00 0.00 67 1023.1
20210119173352 71 190 7.0 16.0 0.00 0.00 0.00 67 1023.2
20210119173248 71 93 7.0 16.0 0.00 0.00 0.00 67 1023.2
20210119173143 71 217 8.0 16.0 0.00 0.00 0.00 67 1023.2
20210119173047 71 144 7.0 17.0 0.00 0.00 0.00 67 1023.3
20210119172942 71 175 6.0 17.0 0.00 0.00 0.00 67 1023.2
20210119172843 71 117 8.0 17.0 0.00 0.00 0.00 67 1023.3
20210119172743 71 206 8.0 17.0 0.00 0.00 0.00 67 1023.2
20210119172642 71 117 6.0 17.0 0.00 0.00 0.00 67 1023.4
20210119172544 71 161 8.0 17.0 0.00 0.00 0.00 67 1023.3
20210119172442 71 186 8.0 17.0 0.00 0.00 0.00 67 1023.4
20210119172345 71 165 7.0 17.0 0.00 0.00 0.00 67 1023.4
20210119172244 71 166 9.0 17.0 0.00 0.00 0.00 66 1023.3
20210119172145 72 193 9.0 17.0 0.00 0.00 0.00 66 1023.4
20210119172045 72 252 7.0 14.0 0.00 0.00 0.00 67 1023.4
20210119171945 72 247 7.0 14.0 0.00 0.00 0.00 66 1023.5
20210119171842 72 195 8.0 14.0 0.00 0.00 0.00 66 1023.5
20210119171742 72 151 8.0 13.0 0.00 0.00 0.00 66 1023.5
20210119171643 73 200 6.0 13.0 0.00 0.00 0.00 66 1023.4
20210119171542 73 220 3.0 14.0 0.00 0.00 0.00 66 1023.4
20210119171442 73 34 3.0 15.0 0.00 0.00 0.00 67 1023.5
20210119171344 72 16 3.0 15.0 0.00 0.00 0.00 67 1023.3
20210119171242 72 238 3.0 15.0 0.00 0.00 0.00 67 1023.3
20210119171142 72 169 4.0 15.0 0.00 0.00 0.00 67 1023.3
20210119171042 72 172 4.0 15.0 0.00 0.00 0.00 67 1023.2
20210119170943 72 179 6.0 15.0 0.00 0.00 0.00 67 1023.3
20210119170842 72 151 7.0 15.0 0.00 0.00 0.00 67 1023.2
20210119170745 72 118 7.0 15.0 0.00 0.00 0.00 67 1023.2
20210119170642 72 100 8.0 15.0 0.00 0.00 0.00 67 1023.2
20210119170542 72 110 7.0 15.0 0.00 0.00 0.00 67 1023.2
20210119170443 72 78 4.0 13.0 0.00 0.00 0.00 67 1023.1
20210119170342 72 117 5.0 13.0 0.00 0.00 0.00 67 1023.1
20210119170246 72 62 7.0 13.0 0.00 0.00 0.00 67 1023.1
20210119170141 72 172 6.0 13.0 0.00 0.00 0.00 67 1023.1
20210119170051 72 114 5.0 13.0 0.00 0.00 0.00 67 1023.1
20210119165945 72 120 5.0 16.0 0.00 0.00 0.00 67 1023.1
20210119165841 72 118 4.0 16.0 0.00 0.00 0.00 68 1023.1
20210119165742 72 138 6.0 16.0 0.00 0.00 0.00 67 1023.2
20210119165642 72 172 6.0 16.0 0.00 0.00 0.00 68 1023.2
20210119165544 72 141 5.0 16.0 0.00 0.00 0.00 69 1023.1
20210119165442 71 68 5.0 16.0 0.00 0.00 0.00 69 1023.2
20210119165342 71 152 6.0 16.0 0.00 0.00 0.00 69 1023.1
20210119165243 71 109 6.0 16.0 0.00 0.00 0.00 69 1023.1
20210119165149 71 165 7.0 16.0 0.00 0.00 0.00 68 1023.1
20210119165044 71 141 8.0 16.0 0.00 0.00 0.00 68 1023.1
20210119164948 71 61 6.0 14.0 0.00 0.00 0.00 68 1023.1
20210119164843 71 93 5.0 14.0 0.00 0.00 0.00 69 1023.1
20210119164741 71 227 6.0 14.0 0.00 0.00 0.00 69 1023.1
20210119164642 71 257 6.0 14.0 0.00 0.00 0.00 69 1023.1
20210119164546 71 212 5.0 14.0 0.00 0.00 0.00 69 1023.2
20210119164445 71 165 6.0 14.0 0.00 0.00 0.00 69 1023.2
20210119164344 71 168 5.0 14.0 0.00 0.00 0.00 70 1023.2
20210119164242 71 168 4.0 14.0 0.00 0.00 0.00 70 1023.2
20210119164142 70 227 6.0 14.0 0.00 0.00 0.00 70 1023.3
20210119164042 70 173 6.0 14.0 0.00 0.00 0.00 70 1023.2
20210119163941 70 151 5.0 13.0 0.00 0.00 0.00 70 1023.2
20210119163843 70 158 4.0 11.0 0.00 0.00 0.00 70 1023.3
20210119163742 70 128 5.0 11.0 0.00 0.00 0.00 71 1023.3
20210119163642 70 107 5.0 10.0 0.00 0.00 0.00 71 1023.2
20210119163546 70 131 4.0 10.0 0.00 0.00 0.00 71 1023.3
20210119163459 70 120 5.0 10.0 0.00 0.00 0.00 71 1023.3
20210119163340 70 169 6.0 10.0 0.00 0.00 0.00 70 1023.2
20210119163242 70 179 6.0 10.0 0.00 0.00 0.00 71 1023.3
20210119163145 70 207 4.0 9.0 0.00 0.00 0.00 71 1023.2
20210119163042 70 148 2.0 9.0 0.00 0.00 0.00 71 1023.3
20210119162941 70 69 2.0 9.0 0.00 0.00 0.00 71 1023.3
20210119162844 70 109 4.0 9.0 0.00 0.00 0.00 71 1023.3
20210119162742 70 183 6.0 9.0 0.00 0.00 0.00 71 1023.3
20210119162644 70 133 5.0 9.0 0.00 0.00 0.00 71 1023.3
20210119162542 70 155 4.0 9.0 0.00 0.00 0.00 71 1023.3
20210119162442 70 226 4.0 9.0 0.00 0.00 0.00 71 1023.2
20210119162345 70 175 5.0 9.0 0.00 0.00 0.00 72 1023.1
20210119162242 70 257 5.0 9.0 0.00 0.00 0.00 72 1023.1
20210119162140 70 193 5.0 9.0 0.00 0.00 0.00 71 1023.1
20210119162040 70 151 5.0 9.0 0.00 0.00 0.00 71 1023.0
20210119161942 70 127 4.0 9.0 0.00 0.00 0.00 72 1023.1
20210119161845 70 141 3.0 9.0 0.00 0.00 0.00 72 1023.1
20210119161746 70 141 3.0 9.0 0.00 0.00 0.00 72 1023.1
20210119161641 70 159 2.0 9.0 0.00 0.00 0.00 72 1023.1
20210119161541 69 152 3.0 9.0 0.00 0.00 0.00 72 1023.1
20210119161440 69 134 5.0 9.0 0.00 0.00 0.00 72 1023.0
20210119161341 69 149 4.0 9.0 0.00 0.00 0.00 72 1023.0
20210119161242 69 152 4.0 10.0 0.00 0.00 0.00 72 1023.0
20210119161140 69 138 3.0 10.0 0.00 0.00 0.00 72 1022.9
20210119161042 69 90 2.0 10.0 0.00 0.00 0.00 72 1022.8
20210119160941 69 102 3.0 10.0 0.00 0.00 0.00 73 1022.9
20210119160844 69 130 3.0 10.0 0.00 0.00 0.00 73 1022.8
20210119160741 69 149 4.0 10.0 0.00 0.00 0.00 73 1022.8
20210119160640 69 130 4.0 10.0 0.00 0.00 0.00 73 1022.8
20210119160542 69 148 4.0 10.0 0.00 0.00 0.00 73 1022.8
20210119160441 69 72 4.0 10.0 0.00 0.00 0.00 73 1022.7
20210119160343 69 113 6.0 10.0 0.00 0.00 0.00 73 1022.7
20210119160240 69 144 6.0 10.0 0.00 0.00 0.00 73 1022.7
20210119160141 69 131 4.0 10.0 0.00 0.00 0.00 73 1022.6
20210119160043 69 106 4.0 9.0 0.00 0.00 0.00 73 1022.6
20210119155941 69 164 3.0 7.0 0.00 0.00 0.00 74 1022.6
20210119155841 69 131 3.0 7.0 0.00 0.00 0.00 73 1022.6
20210119155740 69 300 4.0 7.0 0.00 0.00 0.00 74 1022.5
20210119155641 69 162 4.0 7.0 0.00 0.00 0.00 74 1022.5
20210119155544 69 120 3.0 7.0 0.00 0.00 0.00 74 1022.5
20210119155440 69 116 3.0 7.0 0.00 0.00 0.00 74 1022.6
20210119155341 68 202 3.0 7.0 0.00 0.00 0.00 75 1022.5
20210119155243 68 178 3.0 9.0 0.00 0.00 0.00 75 1022.5
20210119155142 68 92 4.0 9.0 0.00 0.00 0.00 75 1022.4
20210119155042 68 123 4.0 9.0 0.00 0.00 0.00 75 1022.5
20210119154943 68 149 4.0 9.0 0.00 0.00 0.00 75 1022.4
20210119154840 68 162 4.0 9.0 0.00 0.00 0.00 75 1022.5
20210119154740 68 158 5.0 9.0 0.00 0.00 0.00 75 1022.4
20210119154640 68 313 4.0 9.0 0.00 0.00 0.00 75 1022.4
20210119154540 68 162 4.0 9.0 0.00 0.00 0.00 75 1022.3
20210119154441 68 111 4.0 9.0 0.00 0.00 0.00 75 1022.4
20210119154340 68 133 4.0 9.0 0.00 0.00 0.00 76 1022.3
20210119154241 68 133 3.0 6.0 0.00 0.00 0.00 76 1022.4
20210119154148 68 137 3.0 6.0 0.00 0.00 0.00 76 1022.3
20210119154041 68 190 3.0 6.0 0.00 0.00 0.00 77 1022.3